Observation data for Adrian on 11/07/2019      Previous  Date       Current Mesonet Observations  Soil Data  Daily Summary Page  Observations in Plain Language
KAD1 070600Z 03024G29KT M00/M01 A3026 RMK A01 T10011013  RH  092%=      5-min Rain = 0
KAD1 070601Z 03025KT M00/M01 A3026 RMK A01 T10011012  RH  092%=      5-min Rain = 0
KAD1 070602Z 03023KT M00/M01 A3027 RMK A01 T10021013  RH  092%=      5-min Rain = 0
KAD1 070603Z 03026KT M00/M01 A3027 RMK A01 T10011012  RH  092%=      5-min Rain = 0
KAD1 070604Z 03027KT M00/M01 A3027 RMK A01 T10011012  RH  092%=      5-min Rain = 0
KAD1 070605Z 03028KT M00/M01 A3027 RMK A01 T10011013  RH  092%=      5-min Rain = 0
KAD1 070606Z 02025KT M00/M01 A3027 RMK A01 T10021013  RH  092%=      5-min Rain = 0
KAD1 070607Z 02023KT M00/M01 A3028 RMK A01 T10021013  RH  092%=      5-min Rain = 0
KAD1 070608Z 02023KT M00/M01 A3028 RMK A01 T10021013  RH  092%=      5-min Rain = 0
KAD1 070609Z 03025KT M00/M01 A3028 RMK A01 T10021013  RH  092%=      5-min Rain = 0
KAD1 070610Z 03021KT M00/M01 A3028 RMK A01 T10021013  RH  092%=      5-min Rain = 0
KAD1 070611Z 02026G31KT M00/M01 A3028 RMK A01 T10021013  RH  092%=      5-min Rain = 0
KAD1 070612Z 03024KT M00/M01 A3028 RMK A01 T10021013  RH  092%=      5-min Rain = 0
KAD1 070613Z 03027KT M00/M01 A3028 RMK A01 T10021013  RH  092%=      5-min Rain = 0
KAD1 070614Z 03027KT M00/M01 A3028 RMK A01 T10021013  RH  092%=      5-min Rain = 0
KAD1 070615Z 03027KT M00/M01 A3028 RMK A01 T10021013  RH  093%=      5-min Rain = 0
KAD1 070616Z 04025KT M00/M01 A3029 RMK A01 T10021013  RH  093%=      5-min Rain = 0
KAD1 070617Z 04026KT M00/M01 A3028 RMK A01 T10021013  RH  093%=      5-min Rain = 0
KAD1 070618Z 03025G30KT M00/M01 A3029 RMK A01 T10021013  RH  093%=      5-min Rain = 0
KAD1 070619Z 04025KT M00/M01 A3029 RMK A01 T10021013  RH  093%=      5-min Rain = 0
KAD1 070620Z 03025KT M00/M01 A3029 RMK A01 T10021013  RH  093%=      5-min Rain = 0
KAD1 070621Z 03023KT M00/M01 A3029 RMK A01 T10021013  RH  093%=      5-min Rain = 0
KAD1 070622Z 02022KT M00/M01 A3029 RMK A01 T10021013  RH  093%=      5-min Rain = 0
KAD1 070623Z 03023KT M00/M01 A303 RMK A01 T10021013  RH  093%=      5-min Rain = 0
KAD1 070624Z 03025G30KT M00/M01 A303 RMK A01 T10021013  RH  093%=      5-min Rain = 0
KAD1 070625Z 03024KT M00/M01 A303 RMK A01 T10031013  RH  093%=      5-min Rain = 0
KAD1 070626Z 03021KT M00/M01 A303 RMK A01 T10031013  RH  093%=      5-min Rain = 0
KAD1 070627Z 03023KT M00/M01 A303 RMK A01 T10031013  RH  093%=      5-min Rain = 0
KAD1 070628Z 03020KT M00/M01 A303 RMK A01 T10031013  RH  093%=      5-min Rain = 0
KAD1 070629Z 03021KT M00/M01 A303 RMK A01 T10021012  RH  093%=      5-min Rain = 0
KAD1 070630Z 03022KT M00/M01 A3031 RMK A01 T10021013  RH  093%=      5-min Rain = 0
KAD1 070631Z 03023KT M00/M01 A3031 RMK A01 T10021013  RH  093%=      5-min Rain = 0
KAD1 070632Z 02020KT M00/M01 A3031 RMK A01 T10021013  RH  093%=      5-min Rain = 0
KAD1 070633Z 03023KT M00/M01 A3031 RMK A01 T10021012  RH  093%=      5-min Rain = 0
KAD1 070634Z 03024KT M00/M01 A3031 RMK A01 T10021013  RH  093%=      5-min Rain = 0
KAD1 070635Z 03026KT M00/M01 A3031 RMK A01 T10031013  RH  093%=      5-min Rain = 0
KAD1 070636Z 03024KT M00/M01 A3031 RMK A01 T10031013  RH  093%=      5-min Rain = 0
KAD1 070637Z 03022G27KT M00/M01 A3031 RMK A01 T10041013  RH  093%=      5-min Rain = 0
KAD1 070638Z 03021KT M00/M01 A3031 RMK A01 T10041013  RH  093%=      5-min Rain = 0
KAD1 070639Z 03021G29KT M00/M01 A3031 RMK A01 T10031013  RH  093%=      5-min Rain = 0
KAD1 070640Z 03023G28KT M00/M01 A3031 RMK A01 T10031013  RH  093%=      5-min Rain = 0
KAD1 070641Z 03024G29KT M00/M01 A3031 RMK A01 T10041013  RH  093%=      5-min Rain = 0
KAD1 070642Z 03023KT M00/M01 A3031 RMK A01 T10041014  RH  093%=      5-min Rain = 0
KAD1 070643Z 02029KT M01/M01 A3031 RMK A01 T10051014  RH  094%=      5-min Rain = 0
KAD1 070644Z 03026KT M01/M02 A3031 RMK A01 T10061015  RH  094%=      5-min Rain = 0
KAD1 070645Z 03027KT M01/M02 A3031 RMK A01 T10071015  RH  094%=      5-min Rain = 0
KAD1 070646Z 02024KT M01/M02 A3032 RMK A01 T10071016  RH  094%=      5-min Rain = 0
KAD1 070647Z 02028KT M01/M02 A3032 RMK A01 T10081015  RH  094%=      5-min Rain = 0
KAD1 070648Z 02026G31KT M01/M02 A3032 RMK A01 T10091017  RH  095%=      5-min Rain = 0
KAD1 070649Z 02027KT M01/M02 A3032 RMK A01 T10091017  RH  095%=      5-min Rain = 0
KAD1 070650Z 03028G33KT M01/M02 A3032 RMK A01 T10101017  RH  095%=      5-min Rain = 0
KAD1 070651Z 03027KT M01/M02 A3032 RMK A01 T10101017  RH  095%=      5-min Rain = 0
KAD1 070652Z 03029KT M01/M02 A3032 RMK A01 T10101016  RH  096%=      5-min Rain = 0
KAD1 070653Z 03028KT M01/M02 A3032 RMK A01 T10111017  RH  096%=      5-min Rain = 0
KAD1 070654Z 03026KT M01/M02 A3032 RMK A01 T10111016  RH  096%=      5-min Rain = 0
KAD1 070655Z 03027KT M01/M02 A3032 RMK A01 T10111016  RH  096%=      5-min Rain = 0
KAD1 070656Z 03025KT M01/M02 A3032 RMK A01 T10101016  RH  096%=      5-min Rain = 0
KAD1 070657Z 04027G32KT M01/M02 A3032 RMK A01 T10111016  RH  096%=      5-min Rain = 0
KAD1 070658Z 04030KT M01/M02 A3032 RMK A01 T10111016  RH  096%=      5-min Rain = 0
KAD1 070659Z 04025G31KT M01/M02 A3032 RMK A01 T10111016  RH  096%=      5-min Rain = 0
KAD1 070700Z 04023G28KT M01/M02 A3032 RMK A01 T10111016  RH  097%=      5-min Rain = 0
KAD1 070701Z 04028KT M01/M02 A3032 RMK A01 T10111015  RH  097%=      5-min Rain = 0
KAD1 070702Z 04024KT M01/M02 A3032 RMK A01 T10111015  RH  097%=      5-min Rain = 0
KAD1 070703Z 04025KT M01/M02 A3032 RMK A01 T10111015  RH  097%=      5-min Rain = 0
KAD1 070704Z 04026KT M01/M02 A3032 RMK A01 T10111015  RH  097%=      5-min Rain = 0
KAD1 070705Z 03026KT M01/M02 A3032 RMK A01 T10111015  RH  097%=      5-min Rain = 0
KAD1 070706Z 04025KT M01/M02 A3032 RMK A01 T10111015  RH  097%=      5-min Rain = 0
KAD1 070707Z 04021KT M01/M02 A3033 RMK A01 T10101015  RH  097%=      5-min Rain = 0
KAD1 070708Z 03023G29KT M01/M02 A3033 RMK A01 T10101015  RH  097%=      5-min Rain = 0
KAD1 070709Z 04026KT M01/M01 A3033 RMK A01 T10101014  RH  097%=      5-min Rain = 0
KAD1 070710Z 03024KT M01/M02 A3033 RMK A01 T10111015  RH  097%=      5-min Rain = 0
KAD1 070711Z 03022KT M01/M02 A3033 RMK A01 T10111015  RH  097%=      5-min Rain = 0
KAD1 070712Z 03022G27KT M01/M02 A3033 RMK A01 T10111015  RH  097%=      5-min Rain = 0
KAD1 070713Z 03020KT M01/M02 A3033 RMK A01 T10111015  RH  097%=      5-min Rain = 0
KAD1 070714Z 04020KT M01/M02 A3034 RMK A01 T10111015  RH  097%=      5-min Rain = 0
KAD1 070715Z 03023KT M01/M01 A3034 RMK A01 T10101014  RH  097%=      5-min Rain = 0
KAD1 070716Z 03019KT M01/M01 A3034 RMK A01 T10101014  RH  097%=      5-min Rain = 0
KAD1 070717Z 03021KT M01/M01 A3034 RMK A01 T10101014  RH  097%=      5-min Rain = 0
KAD1 070718Z 04020KT M01/M01 A3034 RMK A01 T10111014  RH  097%=      5-min Rain = 0
KAD1 070719Z 04021KT M01/M01 A3034 RMK A01 T10101014  RH  097%=      5-min Rain = 0
KAD1 070720Z 04019G24KT M01/M02 A3034 RMK A01 T10111015  RH  097%=      5-min Rain = 0
KAD1 070721Z 04020KT M01/M02 A3034 RMK A01 T10111015  RH  097%=      5-min Rain = 0
KAD1 070722Z 03021KT M01/M02 A3034 RMK A01 T10111015  RH  097%=      5-min Rain = 0
KAD1 070723Z 04019KT M01/M02 A3034 RMK A01 T10121015  RH  097%=      5-min Rain = 0
KAD1 070724Z 04021KT M01/M02 A3034 RMK A01 T10111015  RH  097%=      5-min Rain = 0
KAD1 070725Z 04021KT M01/M02 A3034 RMK A01 T10111015  RH  097%=      5-min Rain = 0
KAD1 070726Z 04020KT M01/M02 A3035 RMK A01 T10111015  RH  097%=      5-min Rain = 0
KAD1 070727Z 04021KT M01/M02 A3035 RMK A01 T10121015  RH  098%=      5-min Rain = 0
KAD1 070728Z 04017KT M01/M02 A3035 RMK A01 T10121015  RH  098%=      5-min Rain = 0
KAD1 070729Z 04017KT M01/M02 A3035 RMK A01 T10121015  RH  098%=      5-min Rain = 0
KAD1 070730Z 04018KT M01/M02 A3035 RMK A01 T10121015  RH  098%=      5-min Rain = 0
KAD1 070731Z 03018KT M01/M02 A3035 RMK A01 T10121015  RH  098%=      5-min Rain = 0
KAD1 070732Z 03019KT M01/M02 A3035 RMK A01 T10121015  RH  098%=      5-min Rain = 0
KAD1 070733Z 04023KT M01/M02 A3035 RMK A01 T10121015  RH  098%=      5-min Rain = 0
KAD1 070734Z 04025KT M01/M02 A3035 RMK A01 T10131016  RH  098%=      5-min Rain = 0
KAD1 070735Z 03025KT M01/M02 A3035 RMK A01 T10131017  RH  098%=      5-min Rain = 0
KAD1 070736Z 03021G26KT M01/M02 A3036 RMK A01 T10141017  RH  098%=      5-min Rain = 0
KAD1 070737Z 03025KT M01/M02 A3036 RMK A01 T10141017  RH  098%=      5-min Rain = 0
KAD1 070738Z 03024KT M01/M02 A3036 RMK A01 T10141018  RH  098%=      5-min Rain = 0
KAD1 070739Z 03022KT M02/M02 A3036 RMK A01 T10151018  RH  098%=      5-min Rain = 0
KAD1 070740Z 03024KT M02/M02 A3036 RMK A01 T10151018  RH  098%=      5-min Rain = 0
KAD1 070741Z 03021KT M01/M02 A3037 RMK A01 T10141018  RH  098%=      5-min Rain = 0
KAD1 070742Z 03018KT M02/M02 A3037 RMK A01 T10151018  RH  098%=      5-min Rain = 0
KAD1 070743Z 02019G24KT M01/M02 A3037 RMK A01 T10141018  RH  098%=      5-min Rain = 0
KAD1 070744Z 03020KT M01/M02 A3037 RMK A01 T10141017  RH  098%=      5-min Rain = 0
KAD1 070745Z 02021KT M01/M02 A3037 RMK A01 T10141017  RH  098%=      5-min Rain = 0
KAD1 070746Z 03022KT M01/M02 A3037 RMK A01 T10141017  RH  098%=      5-min Rain = 0
KAD1 070747Z 03022KT M02/M02 A3037 RMK A01 T10151018  RH  098%=      5-min Rain = 0
KAD1 070748Z 03022KT M02/M02 A3037 RMK A01 T10151018  RH  098%=      5-min Rain = 0
KAD1 070749Z 02022KT M02/M02 A3037 RMK A01 T10151018  RH  098%=      5-min Rain = 0
KAD1 070750Z 03021KT M02/M02 A3037 RMK A01 T10151018  RH  098%=      5-min Rain = 0
KAD1 070751Z 04024KT M02/M02 A3037 RMK A01 T10151018  RH  098%=      5-min Rain = 0
KAD1 070752Z 03022KT M02/M02 A3037 RMK A01 T10151018  RH  098%=      5-min Rain = 0
KAD1 070753Z 03023KT M02/M02 A3037 RMK A01 T10151018  RH  098%=      5-min Rain = 0
KAD1 070754Z 03021KT M02/M02 A3037 RMK A01 T10151019  RH  098%=      5-min Rain = 0
KAD1 070755Z 03019KT M02/M02 A3037 RMK A01 T10161019  RH  098%=      5-min Rain = 0
KAD1 070756Z 03017KT M02/M02 A3037 RMK A01 T10151018  RH  098%=      5-min Rain = 0
KAD1 070757Z 04018KT M02/M02 A3037 RMK A01 T10151018  RH  098%=      5-min Rain = 0
KAD1 070758Z 03018KT M02/M02 A3037 RMK A01 T10151018  RH  098%=      5-min Rain = 0
KAD1 070759Z 03018KT M01/M02 A3037 RMK A01 T10141017  RH  098%=      5-min Rain = 0
KAD1 070800Z 03020KT M01/M02 A3037 RMK A01 T10141017  RH  098%=      5-min Rain = 0
KAD1 070801Z 04020KT M02/M02 A3037 RMK A01 T10151018  RH  098%=      5-min Rain = 0
KAD1 070802Z 03021KT M02/M02 A3036 RMK A01 T10151018  RH  098%=      5-min Rain = 0
KAD1 070803Z 03022KT M02/M02 A3036 RMK A01 T10151018  RH  098%=      5-min Rain = 0
KAD1 070804Z 03019KT M02/M02 A3036 RMK A01 T10161018  RH  098%=      5-min Rain = 0
KAD1 070805Z 03021KT M02/M02 A3036 RMK A01 T10161019  RH  098%=      5-min Rain = 0
KAD1 070806Z 03022KT M02/M02 A3036 RMK A01 T10161019  RH  098%=      5-min Rain = 0
KAD1 070807Z 03023KT M02/M02 A3036 RMK A01 T10171020  RH  098%=      5-min Rain = 0
KAD1 070808Z 03021KT M02/M02 A3036 RMK A01 T10171021  RH  098%=      5-min Rain = 0
KAD1 070809Z 03018KT M02/M02 A3036 RMK A01 T10171020  RH  098%=      5-min Rain = 0
KAD1 070810Z 03020G25KT M02/M02 A3036 RMK A01 T10171020  RH  098%=      5-min Rain = 0
KAD1 070811Z 03022KT M02/M02 A3036 RMK A01 T10171020  RH  098%=      5-min Rain = 0
KAD1 070812Z 03020G25KT M02/M02 A3036 RMK A01 T10171021  RH  097%=      5-min Rain = 0
KAD1 070813Z 04021KT M02/M02 A3036 RMK A01 T10171021  RH  097%=      5-min Rain = 0
KAD1 070814Z 04021KT M02/M02 A3036 RMK A01 T10171021  RH  097%=      5-min Rain = 0
KAD1 070815Z 03020KT M02/M02 A3037 RMK A01 T10171021  RH  097%=      5-min Rain = 0
KAD1 070816Z 03020KT M02/M02 A3037 RMK A01 T10171021  RH  097%=      5-min Rain = 0
KAD1 070817Z 03018G23KT M02/M02 A3037 RMK A01 T10171021  RH  097%=      5-min Rain = 0
KAD1 070818Z 03021G26KT M02/M02 A3037 RMK A01 T10171021  RH  097%=      5-min Rain = 0
KAD1 070819Z 03022KT M02/M02 A3037 RMK A01 T10171021  RH  097%=      5-min Rain = 0
KAD1 070820Z 03021KT M02/M02 A3037 RMK A01 T10171022  RH  097%=      5-min Rain = 0
KAD1 070821Z 03021KT M02/M02 A3037 RMK A01 T10171021  RH  097%=      5-min Rain = 0
KAD1 070822Z 03019KT M02/M02 A3037 RMK A01 T10171022  RH  097%=      5-min Rain = 0
KAD1 070823Z 03020KT M02/M02 A3037 RMK A01 T10171022  RH  097%=      5-min Rain = 0
KAD1 070824Z 03020KT M02/M02 A3037 RMK A01 T10171022  RH  097%=      5-min Rain = 0
KAD1 070825Z 03019KT M02/M02 A3037 RMK A01 T10171022  RH  097%=      5-min Rain = 0
KAD1 070826Z 03018KT M02/M02 A3037 RMK A01 T10171022  RH  097%=      5-min Rain = 0
KAD1 070827Z 03021KT M02/M02 A3037 RMK A01 T10171022  RH  097%=      5-min Rain = 0
KAD1 070828Z 03017KT M02/M02 A3037 RMK A01 T10171022  RH  097%=      5-min Rain = 0
KAD1 070829Z 03016KT M02/M02 A3037 RMK A01 T10171022  RH  097%=      5-min Rain = 0
KAD1 070830Z 04017KT M02/M02 A3037 RMK A01 T10171021  RH  097%=      5-min Rain = 0
KAD1 070831Z 03017KT M02/M02 A3037 RMK A01 T10171021  RH  097%=      5-min Rain = 0
KAD1 070832Z 03017KT M02/M02 A3037 RMK A01 T10161021  RH  097%=      5-min Rain = 0
KAD1 070833Z 03019KT M02/M02 A3037 RMK A01 T10161021  RH  097%=      5-min Rain = 0
KAD1 070834Z 03020KT M02/M02 A3037 RMK A01 T10171022  RH  097%=      5-min Rain = 0
KAD1 070835Z 03019G24KT M02/M02 A3037 RMK A01 T10171022  RH  097%=      5-min Rain = 0
KAD1 070836Z 03020KT M02/M02 A3037 RMK A01 T10171022  RH  097%=      5-min Rain = 0
KAD1 070837Z 03020KT M02/M02 A3037 RMK A01 T10171022  RH  097%=      5-min Rain = 0
KAD1 070838Z 02017KT M02/M02 A3038 RMK A01 T10181023  RH  096%=      5-min Rain = 0
KAD1 070839Z 02021KT M02/M02 A3038 RMK A01 T10181023  RH  096%=      5-min Rain = 0
KAD1 070840Z 02019KT M02/M02 A3038 RMK A01 T10181023  RH  096%=      5-min Rain = 0
KAD1 070841Z 02019KT M02/M02 A3038 RMK A01 T10181023  RH  096%=      5-min Rain = 0
KAD1 070842Z 02018KT M02/M02 A3037 RMK A01 T10181024  RH  096%=      5-min Rain = 0
KAD1 070843Z 02017KT M02/M02 A3037 RMK A01 T10181024  RH  096%=      5-min Rain = 0
KAD1 070844Z 02017KT M02/M02 A3037 RMK A01 T10181024  RH  096%=      5-min Rain = 0
KAD1 070845Z 03016KT M02/M02 A3037 RMK A01 T10181023  RH  096%=      5-min Rain = 0
KAD1 070846Z 03016KT M02/M02 A3037 RMK A01 T10181023  RH  096%=      5-min Rain = 0
KAD1 070847Z 03018KT M02/M02 A3037 RMK A01 T10181023  RH  096%=      5-min Rain = 0
KAD1 070848Z 03017KT M02/M02 A3037 RMK A01 T10181023  RH  096%=      5-min Rain = 0
KAD1 070849Z 02018KT M02/M02 A3037 RMK A01 T10181023  RH  096%=      5-min Rain = 0
KAD1 070850Z 03020KT M02/M02 A3037 RMK A01 T10181023  RH  096%=      5-min Rain = 0
KAD1 070851Z 02021KT M02/M02 A3037 RMK A01 T10181023  RH  096%=      5-min Rain = 0
KAD1 070852Z 03020KT M02/M02 A3037 RMK A01 T10191024  RH  096%=      5-min Rain = 0
KAD1 070853Z 03021KT M02/M02 A3036 RMK A01 T10191024  RH  096%=      5-min Rain = 0
KAD1 070854Z 03020KT M02/M02 A3037 RMK A01 T10191024  RH  096%=      5-min Rain = 0
KAD1 070855Z 03018KT M02/M02 A3036 RMK A01 T10181024  RH  096%=      5-min Rain = 0
KAD1 070856Z 03019KT M02/M02 A3036 RMK A01 T10191024  RH  096%=      5-min Rain = 0
KAD1 070857Z 03019KT M02/M03 A3036 RMK A01 T10191025  RH  096%=      5-min Rain = 0
KAD1 070858Z 03018KT M02/M02 A3037 RMK A01 T10191024  RH  096%=      5-min Rain = 0
KAD1 070859Z 03016G22KT M02/M02 A3037 RMK A01 T10191024  RH  096%=      5-min Rain = 0
KAD1 070900Z 03016KT M02/M02 A3037 RMK A01 T10191024  RH  096%=      5-min Rain = 0
KAD1 070901Z 03016KT M02/M02 A3037 RMK A01 T10191024  RH  096%=      5-min Rain = 0
KAD1 070902Z 03017KT M02/M02 A3037 RMK A01 T10191024  RH  096%=      5-min Rain = 0
KAD1 070903Z 03018KT M02/M02 A3037 RMK A01 T10191024  RH  096%=      5-min Rain = 0
KAD1 070904Z 03015KT M02/M02 A3037 RMK A01 T10191024  RH  096%=      5-min Rain = 0
KAD1 070905Z 03017KT M02/M02 A3037 RMK A01 T10191024  RH  096%=      5-min Rain = 0
KAD1 070906Z 03017KT M02/M02 A3037 RMK A01 T10191024  RH  096%=      5-min Rain = 0
KAD1 070907Z 03017KT M02/M02 A3037 RMK A01 T10191024  RH  096%=      5-min Rain = 0
KAD1 070908Z 03016KT M02/M02 A3037 RMK A01 T10191024  RH  096%=      5-min Rain = 0
KAD1 070909Z 03015KT M02/M02 A3037 RMK A01 T10181023  RH  097%=      5-min Rain = 0
KAD1 070910Z 03016KT M02/M02 A3037 RMK A01 T10191023  RH  097%=      5-min Rain = 0
KAD1 070911Z 03018KT M02/M02 A3036 RMK A01 T10191024  RH  096%=      5-min Rain = 0
KAD1 070912Z 03015KT M02/M03 A3037 RMK A01 T10201025  RH  096%=      5-min Rain = 0
KAD1 070913Z 03015KT M02/M02 A3037 RMK A01 T10191024  RH  097%=      5-min Rain = 0
KAD1 070914Z 03014KT M02/M02 A3037 RMK A01 T10191024  RH  097%=      5-min Rain = 0
KAD1 070915Z 03017KT M02/M02 A3037 RMK A01 T10191024  RH  097%=      5-min Rain = 0
KAD1 070916Z 03016KT M02/M02 A3037 RMK A01 T10191024  RH  097%=      5-min Rain = 0
KAD1 070917Z 02014KT M02/M02 A3037 RMK A01 T10191024  RH  097%=      5-min Rain = 0
KAD1 070918Z 02014KT M02/M02 A3037 RMK A01 T10191024  RH  097%=      5-min Rain = 0
KAD1 070919Z 02016KT M02/M02 A3037 RMK A01 T10191023  RH  097%=      5-min Rain = 0
KAD1 070920Z 02017KT M02/M02 A3037 RMK A01 T10201024  RH  097%=      5-min Rain = 0
KAD1 070921Z 02015KT M02/M03 A3037 RMK A01 T10201025  RH  097%=      5-min Rain = 0
KAD1 070922Z 02014KT M02/M03 A3037 RMK A01 T10201025  RH  097%=      5-min Rain = 0
KAD1 070923Z 03015KT M02/M02 A3037 RMK A01 T10201024  RH  097%=      5-min Rain = 0
KAD1 070924Z 03015KT M02/M02 A3037 RMK A01 T10201024  RH  097%=      5-min Rain = 0
KAD1 070925Z 03015KT M02/M02 A3037 RMK A01 T10201024  RH  097%=      5-min Rain = 0
KAD1 070926Z 03016KT M02/M02 A3037 RMK A01 T10201024  RH  097%=      5-min Rain = 0
KAD1 070927Z 03014KT M02/M02 A3037 RMK A01 T10201024  RH  097%=      5-min Rain = 0
KAD1 070928Z 02013KT M02/M02 A3037 RMK A01 T10201024  RH  097%=      5-min Rain = 0
KAD1 070929Z 02013KT M02/M02 A3037 RMK A01 T10201024  RH  097%=      5-min Rain = 0
KAD1 070930Z 02013KT M02/M02 A3037 RMK A01 T10201024  RH  097%=      5-min Rain = 0
KAD1 070931Z 02014KT M02/M02 A3037 RMK A01 T10201024  RH  097%=      5-min Rain = 0
KAD1 070932Z 02014KT M02/M02 A3037 RMK A01 T10201024  RH  097%=      5-min Rain = 0
KAD1 070933Z 02016KT M02/M02 A3037 RMK A01 T10201024  RH  097%=      5-min Rain = 0
KAD1 070934Z 02016KT M02/M03 A3037 RMK A01 T10211025  RH  097%=      5-min Rain = 0
KAD1 070935Z 02014KT M02/M03 A3037 RMK A01 T10211025  RH  097%=      5-min Rain = 0
KAD1 070936Z 02016KT M02/M03 A3038 RMK A01 T10211025  RH  097%=      5-min Rain = 0
KAD1 070937Z 03015KT M02/M03 A3038 RMK A01 T10211025  RH  097%=      5-min Rain = 0
KAD1 070938Z 02015KT M02/M03 A3037 RMK A01 T10211025  RH  097%=      5-min Rain = 0
KAD1 070939Z 02015KT M02/M03 A3038 RMK A01 T10211025  RH  097%=      5-min Rain = 0
KAD1 070940Z 03016KT M02/M03 A3037 RMK A01 T10211025  RH  097%=      5-min Rain = 0
KAD1 070941Z 03015KT M02/M03 A3037 RMK A01 T10211025  RH  097%=      5-min Rain = 0
KAD1 070942Z 03015KT M02/M03 A3037 RMK A01 T10211025  RH  097%=      5-min Rain = 0
KAD1 070943Z 03018KT M02/M03 A3037 RMK A01 T10211025  RH  097%=      5-min Rain = 0
KAD1 070944Z 02017KT M02/M03 A3037 RMK A01 T10221026  RH  097%=      5-min Rain = 0
KAD1 070945Z 03015KT M02/M03 A3037 RMK A01 T10221026  RH  097%=      5-min Rain = 0
KAD1 070946Z 02016KT M02/M03 A3037 RMK A01 T10221027  RH  096%=      5-min Rain = 0
KAD1 070947Z 02016KT M02/M03 A3037 RMK A01 T10211027  RH  096%=      5-min Rain = 0
KAD1 070948Z 02016KT M02/M03 A3037 RMK A01 T10221027  RH  096%=      5-min Rain = 0
KAD1 070949Z 03016KT M02/M03 A3037 RMK A01 T10221028  RH  096%=      5-min Rain = 0
KAD1 070950Z 03017KT M02/M03 A3037 RMK A01 T10221028  RH  096%=      5-min Rain = 0
KAD1 070951Z 03016KT M02/M03 A3037 RMK A01 T10221028  RH  096%=      5-min Rain = 0
KAD1 070952Z 03014KT M02/M03 A3037 RMK A01 T10231029  RH  096%=      5-min Rain = 0
KAD1 070953Z 03015KT M02/M03 A3037 RMK A01 T10231029  RH  096%=      5-min Rain = 0
KAD1 070954Z 03015KT M02/M03 A3037 RMK A01 T10231028  RH  096%=      5-min Rain = 0
KAD1 070955Z 03016KT M02/M03 A3036 RMK A01 T10231029  RH  096%=      5-min Rain = 0
KAD1 070956Z 02015KT M02/M03 A3037 RMK A01 T10241030  RH  096%=      5-min Rain = 0
KAD1 070957Z 02014KT M02/M03 A3037 RMK A01 T10241029  RH  096%=      5-min Rain = 0
KAD1 070958Z 02013KT M02/M03 A3037 RMK A01 T10241029  RH  096%=      5-min Rain = 0
KAD1 070959Z 02013KT M02/M03 A3038 RMK A01 T10241029  RH  096%=      5-min Rain = 0
KAD1 071000Z 02015KT M02/M03 A3038 RMK A01 T10231028  RH  096%=      5-min Rain = 0
KAD1 071001Z 03014KT M02/M03 A3038 RMK A01 T10231028  RH  096%=      5-min Rain = 0
KAD1 071002Z 03013KT M02/M03 A3038 RMK A01 T10231029  RH  096%=      5-min Rain = 0
KAD1 071003Z 02013KT M02/M03 A3038 RMK A01 T10231028  RH  096%=      5-min Rain = 0
KAD1 071004Z 03014KT M02/M03 A3038 RMK A01 T10231028  RH  097%=      5-min Rain = 0
KAD1 071005Z 03013KT M02/M03 A3038 RMK A01 T10231028  RH  097%=      5-min Rain = 0
KAD1 071006Z 02015KT M02/M03 A3038 RMK A01 T10231028  RH  097%=      5-min Rain = 0
KAD1 071007Z 02015KT M02/M03 A3038 RMK A01 T10231028  RH  097%=      5-min Rain = 0
KAD1 071008Z 03014KT M02/M03 A3038 RMK A01 T10241028  RH  097%=      5-min Rain = 0
KAD1 071009Z 03014KT M02/M03 A3038 RMK A01 T10241028  RH  097%=      5-min Rain = 0
KAD1 071010Z 03014KT M02/M03 A3038 RMK A01 T10241029  RH  097%=      5-min Rain = 0
KAD1 071011Z 04014KT M02/M03 A3038 RMK A01 T10241028  RH  097%=      5-min Rain = 0
KAD1 071012Z 03015KT M02/M03 A3038 RMK A01 T10231028  RH  097%=      5-min Rain = 0
KAD1 071013Z 03012KT M02/M03 A3038 RMK A01 T10231028  RH  097%=      5-min Rain = 0
KAD1 071014Z 04015KT M02/M03 A3038 RMK A01 T10241028  RH  097%=      5-min Rain = 0
KAD1 071015Z 03013KT M02/M03 A3038 RMK A01 T10231028  RH  097%=      5-min Rain = 0
KAD1 071016Z 03013KT M02/M03 A3038 RMK A01 T10231028  RH  097%=      5-min Rain = 0
KAD1 071017Z 03013KT M02/M03 A3038 RMK A01 T10231028  RH  097%=      5-min Rain = 0
KAD1 071018Z 03014KT M02/M03 A3038 RMK A01 T10231028  RH  097%=      5-min Rain = 0
KAD1 071019Z 03013KT M02/M03 A3038 RMK A01 T10231028  RH  096%=      5-min Rain = 0
KAD1 071020Z 02012KT M02/M03 A3039 RMK A01 T10231028  RH  096%=      5-min Rain = 0
KAD1 071021Z 03015KT M02/M03 A3038 RMK A01 T10231028  RH  096%=      5-min Rain = 0
KAD1 071022Z 03014KT M02/M03 A3038 RMK A01 T10231028  RH  096%=      5-min Rain = 0
KAD1 071023Z 03014KT M02/M03 A3038 RMK A01 T10241029  RH  096%=      5-min Rain = 0
KAD1 071024Z 03014KT M02/M03 A3038 RMK A01 T10241030  RH  096%=      5-min Rain = 0
KAD1 071025Z 03013KT M02/M03 A3039 RMK A01 T10241030  RH  096%=      5-min Rain = 0
KAD1 071026Z 03014KT M02/M03 A3039 RMK A01 T10241030  RH  095%=      5-min Rain = 0
KAD1 071027Z 03015KT M02/M03 A3039 RMK A01 T10241031  RH  095%=      5-min Rain = 0
KAD1 071028Z 03014KT M02/M03 A3039 RMK A01 T10241031  RH  095%=      5-min Rain = 0
KAD1 071029Z 03016KT M03/M03 A3039 RMK A01 T10251031  RH  095%=      5-min Rain = 0
KAD1 071030Z 04014KT M03/M03 A3039 RMK A01 T10251031  RH  095%=      5-min Rain = 0
KAD1 071031Z 03013KT M02/M03 A3038 RMK A01 T10241031  RH  095%=      5-min Rain = 0
KAD1 071032Z 03015KT M03/M03 A3038 RMK A01 T10251031  RH  096%=      5-min Rain = 0
KAD1 071033Z 03015KT M03/M03 A3039 RMK A01 T10251031  RH  096%=      5-min Rain = 0
KAD1 071034Z 03016KT M03/M03 A3038 RMK A01 T10251031  RH  096%=      5-min Rain = 0
KAD1 071035Z 02016KT M03/M03 A3039 RMK A01 T10251031  RH  096%=      5-min Rain = 0
KAD1 071036Z 03014KT M03/M03 A3038 RMK A01 T10251031  RH  095%=      5-min Rain = 0
KAD1 071037Z 03015KT M02/M03 A3038 RMK A01 T10241031  RH  095%=      5-min Rain = 0
KAD1 071038Z 03016KT M03/M03 A3038 RMK A01 T10251032  RH  095%=      5-min Rain = 0
KAD1 071039Z 03015KT M03/M03 A3038 RMK A01 T10251032  RH  095%=      5-min Rain = 0
KAD1 071040Z 03014KT M03/M03 A3038 RMK A01 T10251032  RH  095%=      5-min Rain = 0
KAD1 071041Z 03013KT M03/M03 A3038 RMK A01 T10251032  RH  095%=      5-min Rain = 0
KAD1 071042Z 03015KT M03/M03 A3038 RMK A01 T10251032  RH  095%=      5-min Rain = 0
KAD1 071043Z 03014KT M03/M03 A3038 RMK A01 T10251032  RH  095%=      5-min Rain = 0
KAD1 071044Z 03014KT M03/M03 A3038 RMK A01 T10251032  RH  095%=      5-min Rain = 0
KAD1 071045Z 03013KT M03/M03 A3038 RMK A01 T10251032  RH  095%=      5-min Rain = 0
KAD1 071046Z 03014KT M03/M03 A3038 RMK A01 T10251032  RH  095%=      5-min Rain = 0
KAD1 071047Z 03013KT M03/M03 A3038 RMK A01 T10251032  RH  095%=      5-min Rain = 0
KAD1 071048Z 03012KT M03/M03 A3038 RMK A01 T10251031  RH  095%=      5-min Rain = 0
KAD1 071049Z 04012KT M03/M03 A3038 RMK A01 T10251031  RH  096%=      5-min Rain = 0
KAD1 071050Z 03012KT M03/M03 A3038 RMK A01 T10251031  RH  096%=      5-min Rain = 0
KAD1 071051Z 03011KT M03/M03 A3038 RMK A01 T10251031  RH  096%=      5-min Rain = 0
KAD1 071052Z 03011KT M03/M03 A3038 RMK A01 T10251031  RH  096%=      5-min Rain = 0
KAD1 071053Z 03012KT M03/M03 A3038 RMK A01 T10251030  RH  096%=      5-min Rain = 0
KAD1 071054Z 03015KT M03/M03 A3038 RMK A01 T10251030  RH  096%=      5-min Rain = 0
KAD1 071055Z 03014KT M03/M03 A3038 RMK A01 T10251031  RH  096%=      5-min Rain = 0
KAD1 071056Z 03014KT M03/M03 A3038 RMK A01 T10251031  RH  096%=      5-min Rain = 0
KAD1 071057Z 03013KT M03/M03 A3038 RMK A01 T10261032  RH  096%=      5-min Rain = 0
KAD1 071058Z 03014KT M03/M03 A3038 RMK A01 T10261032  RH  096%=      5-min Rain = 0
KAD1 071059Z 02013KT M03/M03 A3038 RMK A01 T10261032  RH  096%=      5-min Rain = 0
KAD1 071100Z 03012KT M03/M03 A3038 RMK A01 T10261032  RH  096%=      5-min Rain = 0
KAD1 071101Z 03013KT M03/M03 A3038 RMK A01 T10251031  RH  096%=      5-min Rain = 0
KAD1 071102Z 03012KT M03/M03 A3038 RMK A01 T10251031  RH  096%=      5-min Rain = 0
KAD1 071103Z 03011KT M02/M03 A3038 RMK A01 T10241030  RH  096%=      5-min Rain = 0
KAD1 071104Z 03010KT M02/M03 A3038 RMK A01 T10241030  RH  096%=      5-min Rain = 0
KAD1 071105Z 02011KT M02/M03 A3039 RMK A01 T10241030  RH  096%=      5-min Rain = 0
KAD1 071106Z 03013KT M02/M03 A3039 RMK A01 T10241030  RH  096%=      5-min Rain = 0
KAD1 071107Z 03013KT M03/M03 A3039 RMK A01 T10251030  RH  096%=      5-min Rain = 0
KAD1 071108Z 02012KT M03/M03 A3039 RMK A01 T10251031  RH  096%=      5-min Rain = 0
KAD1 071109Z 02011KT M03/M03 A3039 RMK A01 T10251031  RH  096%=      5-min Rain = 0
KAD1 071110Z 03012KT M03/M03 A3039 RMK A01 T10251031  RH  096%=      5-min Rain = 0
KAD1 071111Z 03012KT M03/M03 A3039 RMK A01 T10251030  RH  096%=      5-min Rain = 0
KAD1 071112Z 03013KT M03/M03 A3039 RMK A01 T10251030  RH  096%=      5-min Rain = 0
KAD1 071113Z 02012KT M03/M03 A3039 RMK A01 T10251030  RH  096%=      5-min Rain = 0
KAD1 071114Z 03012KT M03/M03 A3039 RMK A01 T10251031  RH  096%=      5-min Rain = 0
KAD1 071115Z 03012KT M03/M03 A3039 RMK A01 T10251031  RH  096%=      5-min Rain = 0
KAD1 071116Z 03011KT M03/M03 A304 RMK A01 T10251031  RH  096%=      5-min Rain = 0
KAD1 071117Z 03012KT M03/M03 A304 RMK A01 T10251031  RH  096%=      5-min Rain = 0
KAD1 071118Z 03011KT M03/M03 A304 RMK A01 T10251031  RH  096%=      5-min Rain = 0
KAD1 071119Z 03011KT M02/M03 A3041 RMK A01 T10241031  RH  096%=      5-min Rain = 0
KAD1 071120Z 04011KT M02/M03 A304 RMK A01 T10241030  RH  095%=      5-min Rain = 0
KAD1 071121Z 03012KT M02/M03 A3041 RMK A01 T10241031  RH  095%=      5-min Rain = 0
KAD1 071122Z 04013KT M02/M03 A3041 RMK A01 T10241031  RH  095%=      5-min Rain = 0
KAD1 071123Z 03013KT M02/M03 A3041 RMK A01 T10241031  RH  095%=      5-min Rain = 0
KAD1 071124Z 03012KT M02/M03 A3041 RMK A01 T10241031  RH  095%=      5-min Rain = 0
KAD1 071125Z 02011KT M02/M03 A3041 RMK A01 T10241031  RH  095%=      5-min Rain = 0
KAD1 071126Z 03011KT M02/M03 A3041 RMK A01 T10241031  RH  095%=      5-min Rain = 0
KAD1 071127Z 02014KT M02/M03 A3041 RMK A01 T10241031  RH  095%=      5-min Rain = 0
KAD1 071128Z 02013KT M03/M03 A3041 RMK A01 T10251032  RH  095%=      5-min Rain = 0
KAD1 071129Z 02012KT M03/M03 A3041 RMK A01 T10251032  RH  095%=      5-min Rain = 0
KAD1 071130Z 02011KT M02/M03 A3042 RMK A01 T10241032  RH  095%=      5-min Rain = 0
KAD1 071131Z 02010KT M03/M03 A3042 RMK A01 T10251032  RH  095%=      5-min Rain = 0
KAD1 071132Z 02010KT M03/M03 A3042 RMK A01 T10251032  RH  095%=      5-min Rain = 0
KAD1 071133Z 02011KT M02/M03 A3042 RMK A01 T10241031  RH  095%=      5-min Rain = 0
KAD1 071134Z 02012KT M02/M03 A3042 RMK A01 T10241031  RH  095%=      5-min Rain = 0
KAD1 071135Z 02011KT M03/M03 A3042 RMK A01 T10251031  RH  095%=      5-min Rain = 0
KAD1 071136Z 02011KT M03/M03 A3042 RMK A01 T10251031  RH  095%=      5-min Rain = 0
KAD1 071137Z 03012G17KT M02/M03 A3042 RMK A01 T10241031  RH  096%=      5-min Rain = 0
KAD1 071138Z 03013KT M03/M03 A3042 RMK A01 T10251031  RH  095%=      5-min Rain = 0
KAD1 071139Z 03011KT M03/M03 A3042 RMK A01 T10251032  RH  095%=      5-min Rain = 0
KAD1 071140Z 03014KT M03/M03 A3042 RMK A01 T10261032  RH  095%=      5-min Rain = 0
KAD1 071141Z 02014KT M03/M03 A3042 RMK A01 T10261033  RH  095%=      5-min Rain = 0
KAD1 071142Z 02013KT M03/M03 A3042 RMK A01 T10261033  RH  095%=      5-min Rain = 0
KAD1 071143Z 02013KT M03/M03 A3042 RMK A01 T10261034  RH  095%=      5-min Rain = 0
KAD1 071144Z 02012KT M03/M03 A3042 RMK A01 T10261034  RH  095%=      5-min Rain = 0
KAD1 071145Z 02012KT M03/M03 A3042 RMK A01 T10261034  RH  095%=      5-min Rain = 0
KAD1 071146Z 02012KT M03/M03 A3042 RMK A01 T10271034  RH  095%=      5-min Rain = 0
KAD1 071147Z 02012KT M03/M03 A3042 RMK A01 T10271034  RH  095%=      5-min Rain = 0
KAD1 071148Z 02011KT M03/M03 A3042 RMK A01 T10271034  RH  095%=      5-min Rain = 0
KAD1 071149Z 03013KT M03/M04 A3042 RMK A01 T10271035  RH  095%=      5-min Rain = 0
KAD1 071150Z 02012KT M03/M03 A3042 RMK A01 T10271034  RH  095%=      5-min Rain = 0
KAD1 071151Z 03014KT M03/M04 A3042 RMK A01 T10271035  RH  095%=      5-min Rain = 0
KAD1 071152Z 02013KT M03/M04 A3042 RMK A01 T10271035  RH  095%=      5-min Rain = 0
KAD1 071153Z 03012KT M03/M04 A3042 RMK A01 T10281035  RH  095%=      5-min Rain = 0
KAD1 071154Z 03012KT M03/M04 A3042 RMK A01 T10271035  RH  095%=      5-min Rain = 0
KAD1 071155Z 03011KT M03/M04 A3042 RMK A01 T10271035  RH  095%=      5-min Rain = 0
KAD1 071156Z 03013KT M03/M04 A3042 RMK A01 T10271035  RH  095%=      5-min Rain = 0
KAD1 071157Z 03012KT M03/M04 A3042 RMK A01 T10271035  RH  094%=      5-min Rain = 0
KAD1 071158Z 03012KT M03/M04 A3042 RMK A01 T10271035  RH  094%=      5-min Rain = 0
KAD1 071159Z 03011KT M03/M04 A3042 RMK A01 T10271035  RH  094%=      5-min Rain = 0
KAD1 071200Z 03011KT M03/M04 A3042 RMK A01 T10271035  RH  094%=      5-min Rain = 0
KAD1 071201Z 03012KT M03/M04 A3042 RMK A01 T10271035  RH  094%=      5-min Rain = 0
KAD1 071202Z 03009KT M03/M04 A3042 RMK A01 T10271036  RH  094%=      5-min Rain = 0
KAD1 071203Z 02013KT M03/M04 A3042 RMK A01 T10271035  RH  094%=      5-min Rain = 0
KAD1 071204Z 03013KT M03/M04 A3041 RMK A01 T10271035  RH  094%=      5-min Rain = 0
KAD1 071205Z 02013KT M03/M04 A3042 RMK A01 T10271036  RH  094%=      5-min Rain = 0
KAD1 071206Z 02015KT M03/M04 A3042 RMK A01 T10281036  RH  094%=      5-min Rain = 0
KAD1 071207Z 03014KT M03/M04 A3042 RMK A01 T10271037  RH  094%=      5-min Rain = 0
KAD1 071208Z 03014KT M03/M04 A3042 RMK A01 T10271037  RH  093%=      5-min Rain = 0
KAD1 071209Z 03014KT M03/M04 A3041 RMK A01 T10271036  RH  093%=      5-min Rain = 0
KAD1 071210Z 03013KT M03/M04 A3041 RMK A01 T10281037  RH  093%=      5-min Rain = 0
KAD1 071211Z 03015KT M03/M04 A3041 RMK A01 T10281038  RH  093%=      5-min Rain = 0
KAD1 071212Z 03013KT M03/M04 A3041 RMK A01 T10281038  RH  093%=      5-min Rain = 0
KAD1 071213Z 03012KT M03/M04 A3041 RMK A01 T10281038  RH  093%=      5-min Rain = 0
KAD1 071214Z 03013KT M03/M04 A3042 RMK A01 T10281037  RH  094%=      5-min Rain = 0
KAD1 071215Z 03012KT M03/M04 A3042 RMK A01 T10281037  RH  094%=      5-min Rain = 0
KAD1 071216Z 03013KT M03/M04 A3042 RMK A01 T10281037  RH  094%=      5-min Rain = 0
KAD1 071217Z 03014KT M03/M04 A3042 RMK A01 T10281037  RH  094%=      5-min Rain = 0
KAD1 071218Z 03013KT M03/M04 A3042 RMK A01 T10281037  RH  094%=      5-min Rain = 0
KAD1 071219Z 03011KT M03/M04 A3042 RMK A01 T10291038  RH  094%=      5-min Rain = 0
KAD1 071220Z 03011KT M03/M04 A3042 RMK A01 T10291037  RH  094%=      5-min Rain = 0
KAD1 071221Z 03013KT M03/M04 A3043 RMK A01 T10291037  RH  094%=      5-min Rain = 0
KAD1 071222Z 03012KT M03/M04 A3043 RMK A01 T10291037  RH  094%=      5-min Rain = 0
KAD1 071223Z 03012KT M03/M04 A3043 RMK A01 T10291037  RH  094%=      5-min Rain = 0
KAD1 071224Z 03012KT M03/M04 A3043 RMK A01 T10291037  RH  094%=      5-min Rain = 0
KAD1 071225Z 02012KT M03/M04 A3043 RMK A01 T10291037  RH  094%=      5-min Rain = 0
KAD1 071226Z 02011KT M03/M04 A3043 RMK A01 T10291037  RH  094%=      5-min Rain = 0
KAD1 071227Z 02012KT M03/M04 A3043 RMK A01 T10291038  RH  094%=      5-min Rain = 0
KAD1 071228Z 02014KT M03/M04 A3043 RMK A01 T10291038  RH  094%=      5-min Rain = 0
KAD1 071229Z 03013KT M03/M04 A3042 RMK A01 T10301038  RH  094%=      5-min Rain = 0
KAD1 071230Z 03013KT M03/M04 A3042 RMK A01 T10301038  RH  094%=      5-min Rain = 0
KAD1 071231Z 03011KT M03/M04 A3042 RMK A01 T10301038  RH  094%=      5-min Rain = 0
KAD1 071232Z 03011KT M03/M04 A3042 RMK A01 T10301038  RH  094%=      5-min Rain = 0
KAD1 071233Z 03011KT M03/M04 A3042 RMK A01 T10301037  RH  095%=      5-min Rain = 0
KAD1 071234Z 03011KT M03/M04 A3042 RMK A01 T10301037  RH  095%=      5-min Rain = 0
KAD1 071235Z 03011KT M03/M04 A3042 RMK A01 T10301037  RH  095%=      5-min Rain = 0
KAD1 071236Z 03011KT M03/M04 A3042 RMK A01 T10291036  RH  095%=      5-min Rain = 0
KAD1 071237Z 03010KT M03/M04 A3042 RMK A01 T10291036  RH  095%=      5-min Rain = 0
KAD1 071238Z 03011G16KT M03/M04 A3042 RMK A01 T10281035  RH  095%=      5-min Rain = 0
KAD1 071239Z 03013KT M03/M04 A3041 RMK A01 T10281036  RH  095%=      5-min Rain = 0
KAD1 071240Z 03012KT M03/M04 A3041 RMK A01 T10291037  RH  094%=      5-min Rain = 0
KAD1 071241Z 02013KT M03/M04 A3041 RMK A01 T10291037  RH  094%=      5-min Rain = 0
KAD1 071242Z 03013KT M03/M04 A3041 RMK A01 T10291037  RH  094%=      5-min Rain = 0
KAD1 071243Z 03012KT M03/M04 A3042 RMK A01 T10291037  RH  094%=      5-min Rain = 0
KAD1 071244Z 03011KT M03/M04 A3042 RMK A01 T10291037  RH  094%=      5-min Rain = 0
KAD1 071245Z 03012KT M03/M04 A3042 RMK A01 T10291037  RH  094%=      5-min Rain = 0
KAD1 071246Z 03011KT M03/M04 A3042 RMK A01 T10291037  RH  094%=      5-min Rain = 0
KAD1 071247Z 03012KT M03/M04 A3042 RMK A01 T10291037  RH  094%=      5-min Rain = 0
KAD1 071248Z 03012KT M03/M04 A3042 RMK A01 T10291037  RH  094%=      5-min Rain = 0
KAD1 071249Z 03011KT M03/M04 A3042 RMK A01 T10291038  RH  094%=      5-min Rain = 0
KAD1 071250Z 03010KT M03/M04 A3042 RMK A01 T10291037  RH  094%=      5-min Rain = 0
KAD1 071251Z 03011KT M03/M04 A3042 RMK A01 T10291037  RH  094%=      5-min Rain = 0
KAD1 071252Z 04012KT M03/M04 A3042 RMK A01 T10281037  RH  094%=      5-min Rain = 0
KAD1 071253Z 04012KT M03/M04 A3042 RMK A01 T10281037  RH  094%=      5-min Rain = 0
KAD1 071254Z 03014KT M03/M04 A3042 RMK A01 T10291038  RH  094%=      5-min Rain = 0
KAD1 071255Z 03013KT M03/M04 A3042 RMK A01 T10281038  RH  093%=      5-min Rain = 0
KAD1 071256Z 03012KT M03/M04 A3042 RMK A01 T10281038  RH  093%=      5-min Rain = 0
KAD1 071257Z 03012KT M03/M04 A3042 RMK A01 T10281038  RH  093%=      5-min Rain = 0
KAD1 071258Z 04013KT M03/M04 A3042 RMK A01 T10281038  RH  093%=      5-min Rain = 0
KAD1 071259Z 03012KT M03/M04 A3042 RMK A01 T10281038  RH  093%=      5-min Rain = 0
KAD1 071300Z 04013KT M03/M04 A3042 RMK A01 T10281038  RH  093%=      5-min Rain = 0
KAD1 071301Z 04013KT M03/M04 A3042 RMK A01 T10291038  RH  093%=      5-min Rain = 0
KAD1 071302Z 04012KT M03/M04 A3042 RMK A01 T10281038  RH  093%=      5-min Rain = 0
KAD1 071303Z 03011KT M03/M04 A3042 RMK A01 T10281038  RH  093%=      5-min Rain = 0
KAD1 071304Z 03013KT M03/M04 A3043 RMK A01 T10281038  RH  093%=      5-min Rain = 0
KAD1 071305Z 03012KT M03/M04 A3043 RMK A01 T10281038  RH  093%=      5-min Rain = 0
KAD1 071306Z 03012KT M03/M04 A3043 RMK A01 T10281038  RH  093%=      5-min Rain = 0
KAD1 071307Z 04012KT M03/M04 A3043 RMK A01 T10281038  RH  093%=      5-min Rain = 0
KAD1 071308Z 03011KT M03/M04 A3043 RMK A01 T10281038  RH  093%=      5-min Rain = 0
KAD1 071309Z 03012KT M03/M04 A3043 RMK A01 T10281038  RH  093%=      5-min Rain = 0
KAD1 071310Z 03013KT M03/M04 A3043 RMK A01 T10281037  RH  093%=      5-min Rain = 0
KAD1 071311Z 04012KT M03/M04 A3043 RMK A01 T10281038  RH  093%=      5-min Rain = 0
KAD1 071312Z 04013KT M03/M04 A3042 RMK A01 T10281038  RH  093%=      5-min Rain = 0
KAD1 071313Z 04011KT M03/M04 A3043 RMK A01 T10281038  RH  093%=      5-min Rain = 0
KAD1 071314Z 03011KT M03/M04 A3042 RMK A01 T10281038  RH  093%=      5-min Rain = 0
KAD1 071315Z 03011KT M03/M04 A3042 RMK A01 T10281037  RH  093%=      5-min Rain = 0
KAD1 071316Z 03011KT M03/M04 A3042 RMK A01 T10281037  RH  094%=      5-min Rain = 0
KAD1 071317Z 04011KT M03/M04 A3042 RMK A01 T10281037  RH  094%=      5-min Rain = 0
KAD1 071318Z 03011KT M03/M04 A3043 RMK A01 T10281037  RH  094%=      5-min Rain = 0
KAD1 071319Z 03011KT M03/M04 A3042 RMK A01 T10271036  RH  094%=      5-min Rain = 0
KAD1 071320Z 03010KT M03/M04 A3043 RMK A01 T10271036  RH  094%=      5-min Rain = 0
KAD1 071321Z 03011KT M03/M04 A3043 RMK A01 T10271036  RH  094%=      5-min Rain = 0
KAD1 071322Z 03012KT M03/M04 A3042 RMK A01 T10271036  RH  094%=      5-min Rain = 0
KAD1 071323Z 03012KT M03/M04 A3042 RMK A01 T10271036  RH  094%=      5-min Rain = 0
KAD1 071324Z 03010KT M03/M04 A3043 RMK A01 T10271036  RH  094%=      5-min Rain = 0
KAD1 071325Z 03011KT M03/M04 A3043 RMK A01 T10271036  RH  094%=      5-min Rain = 0
KAD1 071326Z 03011KT M03/M04 A3043 RMK A01 T10271036  RH  094%=      5-min Rain = 0
KAD1 071327Z 03012KT M03/M04 A3043 RMK A01 T10271036  RH  094%=      5-min Rain = 0
KAD1 071328Z 03013KT M03/M04 A3043 RMK A01 T10271036  RH  094%=      5-min Rain = 0
KAD1 071329Z 03012KT M03/M04 A3043 RMK A01 T10281036  RH  094%=      5-min Rain = 0
KAD1 071330Z 03010KT M03/M04 A3043 RMK A01 T10281036  RH  094%=      5-min Rain = 0
KAD1 071331Z 03009KT M03/M04 A3043 RMK A01 T10281036  RH  094%=      5-min Rain = 0
KAD1 071332Z 03010KT M03/M04 A3044 RMK A01 T10271035  RH  094%=      5-min Rain = 0
KAD1 071333Z 02010KT M03/M04 A3044 RMK A01 T10271035  RH  094%=      5-min Rain = 0
KAD1 071334Z 03009KT M03/M04 A3044 RMK A01 T10271035  RH  094%=      5-min Rain = 0
KAD1 071335Z 03009KT M03/M03 A3044 RMK A01 T10271034  RH  095%=      5-min Rain = 0
KAD1 071336Z 02008KT M03/M03 A3044 RMK A01 T10271034  RH  095%=      5-min Rain = 0
KAD1 071337Z 03009KT M03/M03 A3044 RMK A01 T10261034  RH  095%=      5-min Rain = 0
KAD1 071338Z 02009KT M03/M03 A3044 RMK A01 T10271034  RH  095%=      5-min Rain = 0
KAD1 071339Z 03008KT M03/M03 A3044 RMK A01 T10271034  RH  095%=      5-min Rain = 0
KAD1 071340Z 03010KT M03/M03 A3044 RMK A01 T10271034  RH  095%=      5-min Rain = 0
KAD1 071341Z 03010KT M03/M03 A3044 RMK A01 T10271034  RH  095%=      5-min Rain = 0
KAD1 071342Z 03011KT M03/M03 A3044 RMK A01 T10271034  RH  095%=      5-min Rain = 0
KAD1 071343Z 03009KT M03/M04 A3044 RMK A01 T10281035  RH  095%=      5-min Rain = 0
KAD1 071344Z 02010KT M03/M04 A3045 RMK A01 T10281035  RH  095%=      5-min Rain = 0
KAD1 071345Z 02012KT M03/M04 A3045 RMK A01 T10291035  RH  095%=      5-min Rain = 0
KAD1 071346Z 02010KT M03/M04 A3045 RMK A01 T10301036  RH  095%=      5-min Rain = 0
KAD1 071347Z 01011KT M03/M04 A3045 RMK A01 T10291035  RH  096%=      5-min Rain = 0
KAD1 071348Z 02011KT M03/M04 A3045 RMK A01 T10301036  RH  096%=      5-min Rain = 0
KAD1 071349Z 03010KT M03/M04 A3045 RMK A01 T10311037  RH  096%=      5-min Rain = 0
KAD1 071350Z 02011KT M03/M04 A3045 RMK A01 T10311036  RH  096%=      5-min Rain = 0
KAD1 071351Z 03010KT M03/M04 A3044 RMK A01 T10311036  RH  096%=      5-min Rain = 0
KAD1 071352Z 03009KT M03/M04 A3044 RMK A01 T10311037  RH  096%=      5-min Rain = 0
KAD1 071353Z 02009KT M03/M04 A3045 RMK A01 T10311036  RH  096%=      5-min Rain = 0
KAD1 071354Z 03010KT M03/M04 A3045 RMK A01 T10311036  RH  096%=      5-min Rain = 0
KAD1 071355Z 02010KT M03/M04 A3045 RMK A01 T10301035  RH  096%=      5-min Rain = 0
KAD1 071356Z 03009KT M03/M04 A3045 RMK A01 T10311036  RH  096%=      5-min Rain = 0
KAD1 071357Z 02010KT M03/M04 A3045 RMK A01 T10311036  RH  097%=      5-min Rain = 0
KAD1 071358Z 02011KT M03/M04 A3045 RMK A01 T10311035  RH  097%=      5-min Rain = 0
KAD1 071359Z 03011KT M03/M04 A3045 RMK A01 T10311036  RH  097%=      5-min Rain = 0
KAD1 071400Z 03010KT M03/M04 A3045 RMK A01 T10321037  RH  096%=      5-min Rain = 0
KAD1 071401Z 02009KT M03/M04 A3045 RMK A01 T10311036  RH  097%=      5-min Rain = 0
KAD1 071402Z 02011KT M03/M04 A3045 RMK A01 T10311036  RH  097%=      5-min Rain = 0
KAD1 071403Z 02012KT M03/M04 A3045 RMK A01 T10311036  RH  097%=      5-min Rain = 0
KAD1 071404Z 03010KT M03/M04 A3045 RMK A01 T10321037  RH  097%=      5-min Rain = 0
KAD1 071405Z 03010KT M03/M04 A3045 RMK A01 T10321037  RH  097%=      5-min Rain = 0
KAD1 071406Z 02010KT M03/M04 A3045 RMK A01 T10321037  RH  097%=      5-min Rain = 0
KAD1 071407Z 03009KT M03/M04 A3045 RMK A01 T10321036  RH  097%=      5-min Rain = 0
KAD1 071408Z 03009KT M03/M04 A3045 RMK A01 T10321036  RH  097%=      5-min Rain = 0
KAD1 071409Z 02008KT M03/M04 A3046 RMK A01 T10321036  RH  097%=      5-min Rain = 0
KAD1 071410Z 02009KT M03/M04 A3046 RMK A01 T10321036  RH  097%=      5-min Rain = 0
KAD1 071411Z 03008KT M03/M04 A3046 RMK A01 T10321036  RH  097%=      5-min Rain = 0
KAD1 071412Z 03008KT M03/M04 A3047 RMK A01 T10321036  RH  097%=      5-min Rain = 0
KAD1 071413Z 03008KT M03/M04 A3047 RMK A01 T10321036  RH  097%=      5-min Rain = 0
KAD1 071414Z 03008KT M03/M04 A3047 RMK A01 T10321036  RH  097%=      5-min Rain = 0
KAD1 071415Z 03009KT M03/M04 A3047 RMK A01 T10321036  RH  097%=      5-min Rain = 0
KAD1 071416Z 03008KT M03/M04 A3047 RMK A01 T10311036  RH  097%=      5-min Rain = 0
KAD1 071417Z 03008KT M03/M04 A3047 RMK A01 T10311036  RH  097%=      5-min Rain = 0
KAD1 071418Z 03008KT M03/M04 A3047 RMK A01 T10321036  RH  097%=      5-min Rain = 0
KAD1 071419Z 04008KT M03/M04 A3047 RMK A01 T10321036  RH  097%=      5-min Rain = 0
KAD1 071420Z 03010KT M03/M04 A3047 RMK A01 T10311035  RH  097%=      5-min Rain = 0
KAD1 071421Z 03009KT M03/M04 A3047 RMK A01 T10321036  RH  097%=      5-min Rain = 0
KAD1 071422Z 03009KT M03/M04 A3047 RMK A01 T10321036  RH  097%=      5-min Rain = 0
KAD1 071423Z 03008KT M03/M04 A3047 RMK A01 T10321036  RH  097%=      5-min Rain = 0
KAD1 071424Z 02009KT M03/M04 A3047 RMK A01 T10321036  RH  097%=      5-min Rain = 0
KAD1 071425Z 03010KT M03/M04 A3047 RMK A01 T10321036  RH  097%=      5-min Rain = 0
KAD1 071426Z 03010KT M03/M04 A3047 RMK A01 T10321036  RH  097%=      5-min Rain = 0
KAD1 071427Z 03010KT M03/M04 A3047 RMK A01 T10321037  RH  097%=      5-min Rain = 0
KAD1 071428Z 03010KT M03/M04 A3047 RMK A01 T10331037  RH  097%=      5-min Rain = 0
KAD1 071429Z 03010KT M03/M04 A3047 RMK A01 T10331038  RH  097%=      5-min Rain = 0
KAD1 071430Z 03010KT M03/M04 A3047 RMK A01 T10331038  RH  097%=      5-min Rain = 0
KAD1 071431Z 03010KT M03/M04 A3047 RMK A01 T10321037  RH  097%=      5-min Rain = 0
KAD1 071432Z 02010KT M03/M04 A3047 RMK A01 T10321037  RH  097%=      5-min Rain = 0
KAD1 071433Z 02010KT M03/M04 A3047 RMK A01 T10331037  RH  096%=      5-min Rain = 0
KAD1 071434Z 03009KT M03/M04 A3047 RMK A01 T10331037  RH  096%=      5-min Rain = 0
KAD1 071435Z 03008KT M03/M04 A3047 RMK A01 T10321037  RH  096%=      5-min Rain = 0
KAD1 071436Z 03010KT M03/M04 A3047 RMK A01 T10321037  RH  097%=      5-min Rain = 0
KAD1 071437Z 03009KT M03/M04 A3048 RMK A01 T10321037  RH  097%=      5-min Rain = 0
KAD1 071438Z 03009KT M03/M04 A3048 RMK A01 T10331037  RH  097%=      5-min Rain = 0
KAD1 071439Z 03010KT M03/M04 A3048 RMK A01 T10331037  RH  097%=      5-min Rain = 0
KAD1 071440Z 03009KT M03/M04 A3048 RMK A01 T10331037  RH  097%=      5-min Rain = 0
KAD1 071441Z 03009KT M03/M04 A3048 RMK A01 T10331038  RH  096%=      5-min Rain = 0
KAD1 071442Z 03008KT M03/M04 A3048 RMK A01 T10331038  RH  096%=      5-min Rain = 0
KAD1 071443Z 04009KT M03/M04 A3048 RMK A01 T10321037  RH  097%=      5-min Rain = 0
KAD1 071444Z 03008KT M03/M04 A3048 RMK A01 T10321037  RH  097%=      5-min Rain = 0
KAD1 071445Z 04008KT M03/M04 A3048 RMK A01 T10321036  RH  097%=      5-min Rain = 0
KAD1 071446Z 03010KT M03/M04 A3048 RMK A01 T10311036  RH  097%=      5-min Rain = 0
KAD1 071447Z 04010KT M03/M04 A3048 RMK A01 T10321036  RH  097%=      5-min Rain = 0
KAD1 071448Z 03009KT M03/M04 A3048 RMK A01 T10321037  RH  097%=      5-min Rain = 0
KAD1 071449Z 03010KT M03/M04 A3048 RMK A01 T10321037  RH  097%=      5-min Rain = 0
KAD1 071450Z 03009KT M03/M04 A3048 RMK A01 T10321036  RH  097%=      5-min Rain = 0
KAD1 071451Z 03009KT M03/M04 A3048 RMK A01 T10321037  RH  097%=      5-min Rain = 0
KAD1 071452Z 04008KT M03/M04 A3048 RMK A01 T10321037  RH  097%=      5-min Rain = 0
KAD1 071453Z 03007KT M03/M04 A3048 RMK A01 T10321036  RH  097%=      5-min Rain = 0
KAD1 071454Z 04009KT M03/M04 A3048 RMK A01 T10311036  RH  097%=      5-min Rain = 0
KAD1 071455Z 04009KT M03/M04 A3048 RMK A01 T10311036  RH  097%=      5-min Rain = 0
KAD1 071456Z 03010KT M03/M04 A3048 RMK A01 T10311036  RH  097%=      5-min Rain = 0
KAD1 071457Z 03009KT M03/M04 A3048 RMK A01 T10311036  RH  096%=      5-min Rain = 0
KAD1 071458Z 03010KT M03/M04 A3047 RMK A01 T10311036  RH  096%=      5-min Rain = 0
KAD1 071459Z 03010KT M03/M04 A3047 RMK A01 T10311037  RH  096%=      5-min Rain = 0
KAD1 071500Z 03010KT M03/M04 A3047 RMK A01 T10321037  RH  096%=      5-min Rain = 0
KAD1 071501Z 03010KT M03/M04 A3047 RMK A01 T10311037  RH  096%=      5-min Rain = 0
KAD1 071502Z 03009KT M03/M04 A3047 RMK A01 T10321037  RH  096%=      5-min Rain = 0
KAD1 071503Z 03010KT M03/M04 A3047 RMK A01 T10311037  RH  096%=      5-min Rain = 0
KAD1 071504Z 03010KT M03/M04 A3047 RMK A01 T10311037  RH  096%=      5-min Rain = 0
KAD1 071505Z 04010KT M03/M04 A3047 RMK A01 T10311036  RH  096%=      5-min Rain = 0
KAD1 071506Z 03009KT M03/M04 A3047 RMK A01 T10311036  RH  096%=      5-min Rain = 0
KAD1 071507Z 03010KT M03/M04 A3047 RMK A01 T10311036  RH  096%=      5-min Rain = 0
KAD1 071508Z 03010KT M03/M04 A3047 RMK A01 T10311036  RH  096%=      5-min Rain = 0
KAD1 071509Z 03009KT M03/M04 A3047 RMK A01 T10301036  RH  096%=      5-min Rain = 0
KAD1 071510Z 03010KT M03/M04 A3047 RMK A01 T10311037  RH  096%=      5-min Rain = 0
KAD1 071511Z 03009KT M03/M04 A3047 RMK A01 T10311037  RH  096%=      5-min Rain = 0
KAD1 071512Z 03008KT M03/M04 A3047 RMK A01 T10301036  RH  096%=      5-min Rain = 0
KAD1 071513Z 03008KT M03/M04 A3047 RMK A01 T10291035  RH  096%=      5-min Rain = 0
KAD1 071514Z 03010KT M03/M04 A3047 RMK A01 T10291035  RH  096%=      5-min Rain = 0
KAD1 071515Z 03010KT M03/M04 A3047 RMK A01 T10291035  RH  096%=      5-min Rain = 0
KAD1 071516Z 03010KT M03/M04 A3047 RMK A01 T10291035  RH  095%=      5-min Rain = 0
KAD1 071517Z 03010KT M03/M04 A3047 RMK A01 T10291036  RH  095%=      5-min Rain = 0
KAD1 071518Z 03012KT M03/M04 A3047 RMK A01 T10291036  RH  095%=      5-min Rain = 0
KAD1 071519Z 02011KT M03/M04 A3048 RMK A01 T10291036  RH  095%=      5-min Rain = 0
KAD1 071520Z 03011KT M03/M04 A3048 RMK A01 T10291036  RH  095%=      5-min Rain = 0
KAD1 071521Z 03012KT M03/M04 A3048 RMK A01 T10291036  RH  095%=      5-min Rain = 0
KAD1 071522Z 03012KT M03/M04 A3048 RMK A01 T10291036  RH  094%=      5-min Rain = 0
KAD1 071523Z 03010KT M03/M04 A3048 RMK A01 T10291037  RH  094%=      5-min Rain = 0
KAD1 071524Z 04010KT M03/M04 A3048 RMK A01 T10291036  RH  094%=      5-min Rain = 0
KAD1 071525Z 04011KT M03/M04 A3048 RMK A01 T10291036  RH  095%=      5-min Rain = 0
KAD1 071526Z 04011KT M03/M04 A3048 RMK A01 T10291036  RH  094%=      5-min Rain = 0
KAD1 071527Z 03011KT M03/M04 A3048 RMK A01 T10291036  RH  094%=      5-min Rain = 0
KAD1 071528Z 02010KT M03/M04 A3048 RMK A01 T10291037  RH  094%=      5-min Rain = 0
KAD1 071529Z 03010KT M03/M04 A3049 RMK A01 T10291037  RH  094%=      5-min Rain = 0
KAD1 071530Z 03008KT M03/M04 A3049 RMK A01 T10291037  RH  094%=      5-min Rain = 0
KAD1 071531Z 03009KT M03/M04 A3049 RMK A01 T10291036  RH  095%=      5-min Rain = 0
KAD1 071532Z 03009KT M03/M04 A3049 RMK A01 T10281036  RH  095%=      5-min Rain = 0
KAD1 071533Z 03010KT M03/M04 A3049 RMK A01 T10281036  RH  095%=      5-min Rain = 0
KAD1 071534Z 04010KT M03/M04 A3049 RMK A01 T10281036  RH  094%=      5-min Rain = 0
KAD1 071535Z 03011KT M03/M04 A3049 RMK A01 T10291037  RH  094%=      5-min Rain = 0
KAD1 071536Z 03010KT M03/M04 A3049 RMK A01 T10291036  RH  094%=      5-min Rain = 0
KAD1 071537Z 03009KT M03/M04 A3049 RMK A01 T10281036  RH  094%=      5-min Rain = 0
KAD1 071538Z 03010KT M03/M04 A3049 RMK A01 T10291037  RH  094%=      5-min Rain = 0
KAD1 071539Z 04010KT M03/M04 A3049 RMK A01 T10291037  RH  094%=      5-min Rain = 0
KAD1 071540Z 03008KT M03/M04 A3049 RMK A01 T10291037  RH  094%=      5-min Rain = 0
KAD1 071541Z 03008KT M03/M04 A3049 RMK A01 T10281036  RH  094%=      5-min Rain = 0
KAD1 071542Z 03010KT M03/M04 A3049 RMK A01 T10271035  RH  094%=      5-min Rain = 0
KAD1 071543Z 03010KT M03/M04 A3049 RMK A01 T10281036  RH  094%=      5-min Rain = 0
KAD1 071544Z 03009KT M03/M04 A3049 RMK A01 T10281036  RH  094%=      5-min Rain = 0
KAD1 071545Z 04011KT M03/M04 A3049 RMK A01 T10281036  RH  094%=      5-min Rain = 0
KAD1 071546Z 04011KT M03/M04 A3049 RMK A01 T10281037  RH  094%=      5-min Rain = 0
KAD1 071547Z 04010KT M03/M04 A3049 RMK A01 T10281037  RH  094%=      5-min Rain = 0
KAD1 071548Z 03009KT M03/M04 A3049 RMK A01 T10281036  RH  094%=      5-min Rain = 0
KAD1 071549Z 04010KT M03/M04 A3049 RMK A01 T10271035  RH  094%=      5-min Rain = 0
KAD1 071550Z 04010KT M03/M04 A3049 RMK A01 T10271036  RH  094%=      5-min Rain = 0
KAD1 071551Z 02011KT M03/M04 A3049 RMK A01 T10271036  RH  094%=      5-min Rain = 0
KAD1 071552Z 04010KT M03/M04 A3049 RMK A01 T10271036  RH  093%=      5-min Rain = 0
KAD1 071553Z 03010KT M03/M04 A3049 RMK A01 T10271037  RH  093%=      5-min Rain = 0
KAD1 071554Z 04009KT M03/M04 A3049 RMK A01 T10271037  RH  093%=      5-min Rain = 0
KAD1 071555Z 03009KT M03/M04 A3049 RMK A01 T10271036  RH  093%=      5-min Rain = 0
KAD1 071556Z 04010KT M03/M04 A3049 RMK A01 T10261035  RH  093%=      5-min Rain = 0
KAD1 071557Z 03010KT M03/M04 A3049 RMK A01 T10261036  RH  093%=      5-min Rain = 0
KAD1 071558Z 03011KT M03/M04 A3049 RMK A01 T10271036  RH  093%=      5-min Rain = 0
KAD1 071559Z 04011KT M03/M04 A3049 RMK A01 T10271037  RH  093%=      5-min Rain = 0
KAD1 071600Z 04010KT M03/M04 A3049 RMK A01 T10271037  RH  093%=      5-min Rain = 0
KAD1 071601Z 03009KT M03/M04 A3049 RMK A01 T10271038  RH  093%=      5-min Rain = 0
KAD1 071602Z 03010KT M03/M04 A3049 RMK A01 T10271037  RH  093%=      5-min Rain = 0
KAD1 071603Z 03009KT M03/M04 A3049 RMK A01 T10271037  RH  093%=      5-min Rain = 0
KAD1 071604Z 03010KT M03/M04 A3049 RMK A01 T10261037  RH  093%=      5-min Rain = 0
KAD1 071605Z 03010KT M03/M04 A3049 RMK A01 T10261037  RH  093%=      5-min Rain = 0
KAD1 071606Z 03009KT M03/M04 A3049 RMK A01 T10261037  RH  092%=      5-min Rain = 0
KAD1 071607Z 04010KT M03/M04 A3049 RMK A01 T10271038  RH  092%=      5-min Rain = 0
KAD1 071608Z 04010KT M03/M04 A3049 RMK A01 T10271038  RH  092%=      5-min Rain = 0
KAD1 071609Z 04010KT M03/M04 A3049 RMK A01 T10271037  RH  092%=      5-min Rain = 0
KAD1 071610Z 04010KT M03/M04 A3049 RMK A01 T10261037  RH  092%=      5-min Rain = 0
KAD1 071611Z 04010KT M03/M04 A3049 RMK A01 T10271038  RH  092%=      5-min Rain = 0
KAD1 071612Z 03009KT M03/M04 A3049 RMK A01 T10271038  RH  092%=      5-min Rain = 0
KAD1 071613Z 04010KT M03/M04 A3049 RMK A01 T10271038  RH  092%=      5-min Rain = 0
KAD1 071614Z 03010KT M03/M04 A3049 RMK A01 T10271039  RH  092%=      5-min Rain = 0
KAD1 071615Z 03010KT M03/M04 A3049 RMK A01 T10271039  RH  091%=      5-min Rain = 0
KAD1 071616Z 03010KT M03/M04 A3049 RMK A01 T10271039  RH  091%=      5-min Rain = 0
KAD1 071617Z 03009KT M03/M04 A305 RMK A01 T10271040  RH  091%=      5-min Rain = 0
KAD1 071618Z 03010KT M03/M04 A305 RMK A01 T10271040  RH  091%=      5-min Rain = 0
KAD1 071619Z 03009KT M03/M04 A305 RMK A01 T10271040  RH  091%=      5-min Rain = 0
KAD1 071620Z 03008KT M03/M04 A305 RMK A01 T10271040  RH  091%=      5-min Rain = 0
KAD1 071621Z 03008KT M03/M04 A305 RMK A01 T10271039  RH  091%=      5-min Rain = 0
KAD1 071622Z 03010KT M03/M04 A305 RMK A01 T10271039  RH  091%=      5-min Rain = 0
KAD1 071623Z 03010KT M03/M04 A3049 RMK A01 T10271040  RH  091%=      5-min Rain = 0
KAD1 071624Z 04008KT M03/M04 A3049 RMK A01 T10271040  RH  091%=      5-min Rain = 0
KAD1 071625Z 03008KT M03/M04 A3049 RMK A01 T10271039  RH  091%=      5-min Rain = 0
KAD1 071626Z 03008KT M03/M04 A3049 RMK A01 T10271039  RH  091%=      5-min Rain = 0
KAD1 071627Z 02009KT M03/M04 A3049 RMK A01 T10271040  RH  091%=      5-min Rain = 0
KAD1 071628Z 02011KT M03/M04 A3049 RMK A01 T10261039  RH  091%=      5-min Rain = 0
KAD1 071629Z 02011KT M03/M04 A3049 RMK A01 T10271040  RH  091%=      5-min Rain = 0
KAD1 071630Z 02010KT M03/M04 A3049 RMK A01 T10271040  RH  090%=      5-min Rain = 0
KAD1 071631Z 03008KT M03/M04 A3049 RMK A01 T10271040  RH  090%=      5-min Rain = 0
KAD1 071632Z 03011KT M03/M04 A3049 RMK A01 T10261039  RH  091%=      5-min Rain = 0
KAD1 071633Z 03010KT M03/M04 A3049 RMK A01 T10261039  RH  091%=      5-min Rain = 0
KAD1 071634Z 03010KT M03/M04 A3049 RMK A01 T10261039  RH  090%=      5-min Rain = 0
KAD1 071635Z 03010KT M03/M04 A3049 RMK A01 T10261039  RH  091%=      5-min Rain = 0
KAD1 071636Z 03010KT M03/M04 A3049 RMK A01 T10261039  RH  091%=      5-min Rain = 0
KAD1 071637Z 04010KT M03/M04 A3049 RMK A01 T10261040  RH  090%=      5-min Rain = 0
KAD1 071638Z 03011KT M03/M04 A3049 RMK A01 T10261039  RH  091%=      5-min Rain = 0
KAD1 071639Z 04009KT M03/M04 A3049 RMK A01 T10261039  RH  091%=      5-min Rain = 0
KAD1 071640Z 03011KT M03/M04 A3049 RMK A01 T10261039  RH  091%=      5-min Rain = 0
KAD1 071641Z 04009KT M03/M04 A3049 RMK A01 T10261039  RH  090%=      5-min Rain = 0
KAD1 071642Z 03009KT M03/M04 A3049 RMK A01 T10261039  RH  090%=      5-min Rain = 0
KAD1 071643Z 03010KT M03/M04 A3049 RMK A01 T10251039  RH  091%=      5-min Rain = 0
KAD1 071644Z 03010KT M03/M04 A3049 RMK A01 T10251039  RH  090%=      5-min Rain = 0
KAD1 071645Z 03010KT M03/M04 A3049 RMK A01 T10251039  RH  090%=      5-min Rain = 0
KAD1 071646Z 03010KT M03/M04 A3049 RMK A01 T10251040  RH  090%=      5-min Rain = 0
KAD1 071647Z 03009KT M03/M04 A3049 RMK A01 T10251040  RH  090%=      5-min Rain = 0
KAD1 071648Z 03011KT M03/M04 A3049 RMK A01 T10251039  RH  090%=      5-min Rain = 0
KAD1 071649Z 03011KT M03/M04 A3049 RMK A01 T10261041  RH  089%=      5-min Rain = 0
KAD1 071650Z 03010KT M03/M04 A3049 RMK A01 T10261041  RH  089%=      5-min Rain = 0
KAD1 071651Z 03009KT M03/M04 A3049 RMK A01 T10261041  RH  089%=      5-min Rain = 0
KAD1 071652Z 03011KT M03/M04 A3049 RMK A01 T10261041  RH  090%=      5-min Rain = 0
KAD1 071653Z 03012KT M03/M04 A3049 RMK A01 T10251040  RH  090%=      5-min Rain = 0
KAD1 071654Z 02012KT M03/M04 A3049 RMK A01 T10261042  RH  089%=      5-min Rain = 0
KAD1 071655Z 03013KT M03/M04 A3049 RMK A01 T10261042  RH  089%=      5-min Rain = 0
KAD1 071656Z 03012KT M03/M04 A3049 RMK A01 T10261042  RH  089%=      5-min Rain = 0
KAD1 071657Z 03010KT M03/M04 A3049 RMK A01 T10261041  RH  089%=      5-min Rain = 0
KAD1 071658Z 03014KT M03/M04 A3049 RMK A01 T10261041  RH  089%=      5-min Rain = 0
KAD1 071659Z 03014KT M03/M04 A3049 RMK A01 T10261042  RH  089%=      5-min Rain = 0
KAD1 071700Z 02014KT M03/M04 A3049 RMK A01 T10261042  RH  089%=      5-min Rain = 0
KAD1 071701Z 03014KT M03/M04 A3049 RMK A01 T10251042  RH  089%=      5-min Rain = 0
KAD1 071702Z 03013KT M03/M04 A3049 RMK A01 T10261042  RH  088%=      5-min Rain = 0
KAD1 071703Z 03015KT M03/M04 A3049 RMK A01 T10261042  RH  088%=      5-min Rain = 0
KAD1 071704Z 03014KT M03/M04 A3049 RMK A01 T10251042  RH  088%=      5-min Rain = 0
KAD1 071705Z 03013KT M03/M04 A3049 RMK A01 T10251042  RH  088%=      5-min Rain = 0
KAD1 071706Z 03014KT M03/M04 A3049 RMK A01 T10251042  RH  088%=      5-min Rain = 0
KAD1 071707Z 03013KT M03/M04 A305 RMK A01 T10261043  RH  088%=      5-min Rain = 0
KAD1 071708Z 03012KT M03/M04 A305 RMK A01 T10261042  RH  088%=      5-min Rain = 0
KAD1 071709Z 03010KT M03/M04 A305 RMK A01 T10251041  RH  089%=      5-min Rain = 0
KAD1 071710Z 03012KT M02/M04 A305 RMK A01 T10241039  RH  090%=      5-min Rain = 0
KAD1 071711Z 03013KT M02/M04 A305 RMK A01 T10241040  RH  089%=      5-min Rain = 0
KAD1 071712Z 02014KT M03/M04 A305 RMK A01 T10251042  RH  088%=      5-min Rain = 0
KAD1 071713Z 02013KT M03/M04 A305 RMK A01 T10261043  RH  088%=      5-min Rain = 0
KAD1 071714Z 02012KT M03/M04 A305 RMK A01 T10251043  RH  088%=      5-min Rain = 0
KAD1 071715Z 03013KT M03/M04 A3049 RMK A01 T10261043  RH  088%=      5-min Rain = 0
KAD1 071716Z 03013KT M03/M04 A305 RMK A01 T10251042  RH  088%=      5-min Rain = 0
KAD1 071717Z 03014KT M03/M04 A305 RMK A01 T10251041  RH  089%=      5-min Rain = 0
KAD1 071718Z 03014KT M02/M04 A305 RMK A01 T10241041  RH  088%=      5-min Rain = 0
KAD1 071719Z 02014KT M03/M04 A305 RMK A01 T10251041  RH  088%=      5-min Rain = 0
KAD1 071720Z 02014KT M02/M04 A305 RMK A01 T10241041  RH  088%=      5-min Rain = 0
KAD1 071721Z 02015KT M03/M04 A305 RMK A01 T10251041  RH  088%=      5-min Rain = 0
KAD1 071722Z 02014KT M03/M04 A305 RMK A01 T10251042  RH  088%=      5-min Rain = 0
KAD1 071723Z 02012KT M03/M04 A305 RMK A01 T10251042  RH  088%=      5-min Rain = 0
KAD1 071724Z 03014KT M03/M04 A305 RMK A01 T10251040  RH  089%=      5-min Rain = 0
KAD1 071725Z 03013KT M03/M04 A305 RMK A01 T10251040  RH  089%=      5-min Rain = 0
KAD1 071726Z 03016KT M03/M04 A3049 RMK A01 T10251040  RH  089%=      5-min Rain = 0
KAD1 071727Z 03016KT M03/M04 A3049 RMK A01 T10251041  RH  089%=      5-min Rain = 0
KAD1 071728Z 04016KT M03/M04 A3049 RMK A01 T10261042  RH  088%=      5-min Rain = 0
KAD1 071729Z 04015KT M03/M04 A3049 RMK A01 T10251041  RH  089%=      5-min Rain = 0
KAD1 071730Z 04015KT M03/M04 A3049 RMK A01 T10251041  RH  089%=      5-min Rain = 0
KAD1 071731Z 03014KT M03/M04 A3049 RMK A01 T10261041  RH  090%=      5-min Rain = 0
KAD1 071732Z 03011KT M03/M04 A3049 RMK A01 T10261040  RH  090%=      5-min Rain = 0
KAD1 071733Z 03011KT M03/M04 A3049 RMK A01 T10251039  RH  090%=      5-min Rain = 0
KAD1 071734Z 04013KT M03/M04 A3049 RMK A01 T10251038  RH  091%=      5-min Rain = 0
KAD1 071735Z 03013KT M02/M04 A3049 RMK A01 T10241037  RH  091%=      5-min Rain = 0
KAD1 071736Z 03013KT M03/M04 A3049 RMK A01 T10251038  RH  091%=      5-min Rain = 0
KAD1 071737Z 03013KT M03/M04 A3049 RMK A01 T10251038  RH  090%=      5-min Rain = 0
KAD1 071738Z 04013KT M03/M04 A305 RMK A01 T10251039  RH  090%=      5-min Rain = 0
KAD1 071739Z 04015KT M03/M04 A305 RMK A01 T10261039  RH  091%=      5-min Rain = 0
KAD1 071740Z 04014KT M03/M04 A305 RMK A01 T10261039  RH  091%=      5-min Rain = 0
KAD1 071741Z 03014KT M03/M04 A3049 RMK A01 T10261039  RH  091%=      5-min Rain = 0
KAD1 071742Z 03013KT M03/M04 A3049 RMK A01 T10261039  RH  091%=      5-min Rain = 0
KAD1 071743Z 03014KT M03/M04 A3049 RMK A01 T10261038  RH  091%=      5-min Rain = 0
KAD1 071744Z 02013KT M03/M04 A3049 RMK A01 T10261038  RH  091%=      5-min Rain = 0
KAD1 071745Z 04012KT M03/M04 A3049 RMK A01 T10251037  RH  092%=      5-min Rain = 0
KAD1 071746Z 04012KT M02/M04 A3049 RMK A01 T10241035  RH  092%=      5-min Rain = 0
KAD1 071747Z 04012KT M02/M04 A3049 RMK A01 T10241035  RH  092%=      5-min Rain = 0
KAD1 071748Z 04013KT M02/M04 A3049 RMK A01 T10241035  RH  093%=      5-min Rain = 0
KAD1 071749Z 04014KT M02/M04 A3049 RMK A01 T10241035  RH  092%=      5-min Rain = 0
KAD1 071750Z 04013KT M03/M04 A3049 RMK A01 T10251037  RH  092%=      5-min Rain = 0
KAD1 071751Z 03012KT M03/M04 A3049 RMK A01 T10261037  RH  092%=      5-min Rain = 0
KAD1 071752Z 04013KT M03/M04 A3049 RMK A01 T10251035  RH  093%=      5-min Rain = 0
KAD1 071753Z 04014KT M03/M04 A3049 RMK A01 T10251036  RH  092%=      5-min Rain = 0
KAD1 071754Z 04015KT M03/M04 A3049 RMK A01 T10251036  RH  092%=      5-min Rain = 0
KAD1 071755Z 04014KT M03/M04 A3049 RMK A01 T10261037  RH  092%=      5-min Rain = 0
KAD1 071756Z 03013KT M03/M04 A3049 RMK A01 T10261037  RH  092%=      5-min Rain = 0
KAD1 071757Z 03012KT M03/M04 A3049 RMK A01 T10261036  RH  093%=      5-min Rain = 0
KAD1 071758Z 03014KT M03/M04 A3049 RMK A01 T10261035  RH  093%=      5-min Rain = 0
KAD1 071759Z 03013KT M03/M04 A3049 RMK A01 T10261035  RH  093%=      5-min Rain = 0
KAD1 071800Z 03013KT M03/M04 A3049 RMK A01 T10251035  RH  093%=      5-min Rain = 0
KAD1 071801Z 03012KT M03/M04 A3049 RMK A01 T10261036  RH  093%=      5-min Rain = 0
KAD1 071802Z 03012KT M03/M04 A3049 RMK A01 T10261035  RH  093%=      5-min Rain = 0
KAD1 071803Z 03011KT M03/M04 A3049 RMK A01 T10261035  RH  094%=      5-min Rain = 0
KAD1 071804Z 03011KT M03/M03 A3049 RMK A01 T10251033  RH  094%=      5-min Rain = 0
KAD1 071805Z 03011KT M03/M03 A3049 RMK A01 T10251033  RH  094%=      5-min Rain = 0
KAD1 071806Z 02010KT M03/M03 A3049 RMK A01 T10251033  RH  094%=      5-min Rain = 0
KAD1 071807Z 02011KT M02/M03 A3049 RMK A01 T10241031  RH  095%=      5-min Rain = 0
KAD1 071808Z 02012KT M02/M03 A3049 RMK A01 T10241031  RH  095%=      5-min Rain = 0
KAD1 071809Z 02011KT M02/M03 A3049 RMK A01 T10241032  RH  094%=      5-min Rain = 0
KAD1 071810Z 02010KT M02/M03 A3049 RMK A01 T10241032  RH  094%=      5-min Rain = 0
KAD1 071811Z 03010KT M02/M03 A3049 RMK A01 T10231031  RH  094%=      5-min Rain = 0
KAD1 071812Z 02011KT M02/M03 A3049 RMK A01 T10231031  RH  095%=      5-min Rain = 0
KAD1 071813Z 02011KT M02/M03 A3049 RMK A01 T10231031  RH  094%=      5-min Rain = 0
KAD1 071814Z 03012KT M02/M03 A3049 RMK A01 T10241032  RH  094%=      5-min Rain = 0
KAD1 071815Z 02011KT M02/M03 A3049 RMK A01 T10241033  RH  094%=      5-min Rain = 0
KAD1 071816Z 02012KT M02/M03 A3049 RMK A01 T10241033  RH  094%=      5-min Rain = 0
KAD1 071817Z 02012KT M02/M03 A3049 RMK A01 T10241033  RH  094%=      5-min Rain = 0
KAD1 071818Z 03011KT M02/M03 A3049 RMK A01 T10241033  RH  094%=      5-min Rain = 0
KAD1 071819Z 03010KT M02/M03 A3049 RMK A01 T10241032  RH  094%=      5-min Rain = 0
KAD1 071820Z 03011KT M02/M03 A3049 RMK A01 T10231031  RH  094%=      5-min Rain = 0
KAD1 071821Z 03012KT M02/M03 A3049 RMK A01 T10231031  RH  094%=      5-min Rain = 0
KAD1 071822Z 02011KT M02/M03 A3049 RMK A01 T10231032  RH  094%=      5-min Rain = 0
KAD1 071823Z 02013KT M02/M03 A3049 RMK A01 T10241032  RH  094%=      5-min Rain = 0
KAD1 071824Z 03012KT M03/M03 A3049 RMK A01 T10251033  RH  094%=      5-min Rain = 0
KAD1 071825Z 03010KT M03/M03 A3049 RMK A01 T10251033  RH  094%=      5-min Rain = 0
KAD1 071826Z 02011KT M02/M03 A3049 RMK A01 T10241032  RH  094%=      5-min Rain = 0
KAD1 071827Z 02011KT M02/M03 A3049 RMK A01 T10241032  RH  094%=      5-min Rain = 0
KAD1 071828Z 02011KT M02/M03 A3049 RMK A01 T10241032  RH  094%=      5-min Rain = 0
KAD1 071829Z 03012KT M03/M03 A3049 RMK A01 T10251033  RH  094%=      5-min Rain = 0
KAD1 071830Z 03011KT M03/M03 A3049 RMK A01 T10251033  RH  094%=      5-min Rain = 0
KAD1 071831Z 03011KT M03/M03 A3049 RMK A01 T10251033  RH  094%=      5-min Rain = 0
KAD1 071832Z 03011KT M03/M03 A3049 RMK A01 T10251033  RH  094%=      5-min Rain = 0
KAD1 071833Z 03010KT M02/M03 A3049 RMK A01 T10241032  RH  094%=      5-min Rain = 0
KAD1 071834Z 02008KT M02/M03 A3049 RMK A01 T10241032  RH  094%=      5-min Rain = 0
KAD1 071835Z 03007KT M02/M03 A3049 RMK A01 T10241031  RH  095%=      5-min Rain = 0
KAD1 071836Z 03008KT M02/M03 A3048 RMK A01 T10231031  RH  095%=      5-min Rain = 0
KAD1 071837Z 03009KT M02/M03 A3048 RMK A01 T10231030  RH  095%=      5-min Rain = 0
KAD1 071838Z 03009KT M02/M03 A3048 RMK A01 T10231030  RH  095%=      5-min Rain = 0
KAD1 071839Z 02010KT M02/M03 A3048 RMK A01 T10241031  RH  095%=      5-min Rain = 0
KAD1 071840Z 03011KT M02/M03 A3048 RMK A01 T10241031  RH  095%=      5-min Rain = 0
KAD1 071841Z 03009KT M03/M03 A3048 RMK A01 T10251032  RH  095%=      5-min Rain = 0
KAD1 071842Z 03011KT M02/M03 A3048 RMK A01 T10241032  RH  095%=      5-min Rain = 0
KAD1 071843Z 03010KT M02/M03 A3048 RMK A01 T10241032  RH  095%=      5-min Rain = 0
KAD1 071844Z 03008KT M03/M03 A3048 RMK A01 T10251032  RH  095%=      5-min Rain = 0
KAD1 071845Z 04010KT M02/M03 A3048 RMK A01 T10241032  RH  095%=      5-min Rain = 0
KAD1 071846Z 03009KT M02/M03 A3048 RMK A01 T10241032  RH  094%=      5-min Rain = 0
KAD1 071847Z 03009KT M03/M03 A3048 RMK A01 T10251033  RH  094%=      5-min Rain = 0
KAD1 071848Z 03007KT M03/M03 A3048 RMK A01 T10251033  RH  094%=      5-min Rain = 0
KAD1 071849Z 04008KT M02/M03 A3048 RMK A01 T10241032  RH  095%=      5-min Rain = 0
KAD1 071850Z 04009KT M02/M03 A3048 RMK A01 T10241031  RH  095%=      5-min Rain = 0
KAD1 071851Z 03009KT M02/M03 A3048 RMK A01 T10241031  RH  095%=      5-min Rain = 0
KAD1 071852Z 03008KT M02/M03 A3048 RMK A01 T10241031  RH  095%=      5-min Rain = 0
KAD1 071853Z 04008KT M02/M03 A3048 RMK A01 T10241031  RH  095%=      5-min Rain = 0
KAD1 071854Z 03008KT M02/M03 A3048 RMK A01 T10241031  RH  095%=      5-min Rain = 0
KAD1 071855Z 04008KT M02/M03 A3048 RMK A01 T10241031  RH  095%=      5-min Rain = 0
KAD1 071856Z 04008KT M03/M03 A3048 RMK A01 T10251032  RH  095%=      5-min Rain = 0
KAD1 071857Z 03008KT M03/M03 A3048 RMK A01 T10251033  RH  095%=      5-min Rain = 0
KAD1 071858Z 03006KT M03/M03 A3048 RMK A01 T10251033  RH  095%=      5-min Rain = 0
KAD1 071859Z 04007KT M02/M03 A3048 RMK A01 T10241031  RH  095%=      5-min Rain = 0
KAD1 071900Z 02007KT M02/M03 A3048 RMK A01 T10241031  RH  095%=      5-min Rain = 0
KAD1 071901Z 03008KT M02/M03 A3048 RMK A01 T10241031  RH  095%=      5-min Rain = 0
KAD1 071902Z 03007KT M02/M03 A3048 RMK A01 T10241031  RH  095%=      5-min Rain = 0
KAD1 071903Z 04006KT M02/M03 A3048 RMK A01 T10231030  RH  095%=      5-min Rain = 0
KAD1 071904Z 04007KT M02/M03 A3048 RMK A01 T10231029  RH  096%=      5-min Rain = 0
KAD1 071905Z 05008KT M02/M03 A3048 RMK A01 T10231029  RH  095%=      5-min Rain = 0
KAD1 071906Z 05008KT M02/M03 A3048 RMK A01 T10231029  RH  095%=      5-min Rain = 0
KAD1 071907Z 04007KT M02/M03 A3047 RMK A01 T10231030  RH  095%=      5-min Rain = 0
KAD1 071908Z 05007KT M02/M03 A3047 RMK A01 T10231030  RH  095%=      5-min Rain = 0
KAD1 071909Z 05008KT M02/M03 A3047 RMK A01 T10231029  RH  096%=      5-min Rain = 0
KAD1 071910Z 05007KT M02/M03 A3047 RMK A01 T10231029  RH  096%=      5-min Rain = 0
KAD1 071911Z 05007KT M02/M03 A3047 RMK A01 T10221028  RH  096%=      5-min Rain = 0
KAD1 071912Z 04007KT M02/M03 A3047 RMK A01 T10221028  RH  096%=      5-min Rain = 0
KAD1 071913Z 04007KT M02/M03 A3047 RMK A01 T10231028  RH  096%=      5-min Rain = 0
KAD1 071914Z 04007KT M02/M03 A3047 RMK A01 T10231028  RH  096%=      5-min Rain = 0
KAD1 071915Z 04007KT M02/M03 A3047 RMK A01 T10231028  RH  096%=      5-min Rain = 0
KAD1 071916Z 05007KT M02/M03 A3047 RMK A01 T10221027  RH  096%=      5-min Rain = 0
KAD1 071917Z 05007KT M02/M03 A3047 RMK A01 T10221027  RH  096%=      5-min Rain = 0
KAD1 071918Z 05007KT M02/M03 A3047 RMK A01 T10231028  RH  096%=      5-min Rain = 0
KAD1 071919Z 04007KT M02/M03 A3047 RMK A01 T10231029  RH  096%=      5-min Rain = 0
KAD1 071920Z 04007KT M02/M03 A3046 RMK A01 T10231028  RH  096%=      5-min Rain = 0
KAD1 071921Z 04007KT M02/M03 A3046 RMK A01 T10211027  RH  096%=      5-min Rain = 0
KAD1 071922Z 03008KT M02/M03 A3046 RMK A01 T10211026  RH  096%=      5-min Rain = 0
KAD1 071923Z 02007KT M02/M03 A3046 RMK A01 T10221028  RH  096%=      5-min Rain = 0
KAD1 071924Z 02008KT M02/M03 A3046 RMK A01 T10221028  RH  096%=      5-min Rain = 0
KAD1 071925Z 02007KT M02/M03 A3046 RMK A01 T10231028  RH  096%=      5-min Rain = 0
KAD1 071926Z 03007KT M02/M03 A3046 RMK A01 T10221028  RH  096%=      5-min Rain = 0
KAD1 071927Z 03007KT M02/M03 A3046 RMK A01 T10221028  RH  096%=      5-min Rain = 0
KAD1 071928Z 02008KT M02/M03 A3046 RMK A01 T10221027  RH  096%=      5-min Rain = 0
KAD1 071929Z 02008KT M02/M03 A3046 RMK A01 T10221027  RH  096%=      5-min Rain = 0
KAD1 071930Z 03007KT M02/M03 A3046 RMK A01 T10211026  RH  096%=      5-min Rain = 0
KAD1 071931Z 02008KT M02/M03 A3046 RMK A01 T10211026  RH  096%=      5-min Rain = 0
KAD1 071932Z 03007KT M02/M03 A3046 RMK A01 T10211026  RH  096%=      5-min Rain = 0
KAD1 071933Z 03008KT M02/M03 A3046 RMK A01 T10211026  RH  096%=      5-min Rain = 0
KAD1 071934Z 03007KT M02/M03 A3046 RMK A01 T10221027  RH  096%=      5-min Rain = 0
KAD1 071935Z 03006KT M02/M03 A3046 RMK A01 T10211026  RH  096%=      5-min Rain = 0
KAD1 071936Z 04007KT M02/M03 A3046 RMK A01 T10211026  RH  097%=      5-min Rain = 0
KAD1 071937Z 02007KT M02/M03 A3046 RMK A01 T10201025  RH  097%=      5-min Rain = 0
KAD1 071938Z 02008KT M02/M02 A3046 RMK A01 T10201024  RH  097%=      5-min Rain = 0
KAD1 071939Z 02007KT M02/M02 A3046 RMK A01 T10201024  RH  097%=      5-min Rain = 0
KAD1 071940Z 02008KT M02/M02 A3046 RMK A01 T10201024  RH  097%=      5-min Rain = 0
KAD1 071941Z 03008KT M02/M03 A3045 RMK A01 T10201025  RH  097%=      5-min Rain = 0
KAD1 071942Z 02007KT M02/M03 A3045 RMK A01 T10201025  RH  097%=      5-min Rain = 0
KAD1 071943Z 02007KT M02/M03 A3045 RMK A01 T10201025  RH  097%=      5-min Rain = 0
KAD1 071944Z 02008KT M02/M03 A3045 RMK A01 T10201025  RH  097%=      5-min Rain = 0
KAD1 071945Z 02007KT M02/M02 A3045 RMK A01 T10191024  RH  097%=      5-min Rain = 0
KAD1 071946Z 03007KT M02/M02 A3045 RMK A01 T10191024  RH  097%=      5-min Rain = 0
KAD1 071947Z 03007KT M02/M03 A3045 RMK A01 T10201025  RH  096%=      5-min Rain = 0
KAD1 071948Z 03007KT M02/M03 A3045 RMK A01 T10201025  RH  096%=      5-min Rain = 0
KAD1 071949Z 03007KT M02/M03 A3045 RMK A01 T10201025  RH  096%=      5-min Rain = 0
KAD1 071950Z 02006KT M02/M03 A3045 RMK A01 T10201025  RH  096%=      5-min Rain = 0
KAD1 071951Z 03006KT M02/M02 A3045 RMK A01 T10191023  RH  097%=      5-min Rain = 0
KAD1 071952Z 03007KT M02/M02 A3045 RMK A01 T10181022  RH  097%=      5-min Rain = 0
KAD1 071953Z 02007KT M02/M02 A3045 RMK A01 T10181023  RH  097%=      5-min Rain = 0
KAD1 071954Z 02007KT M02/M02 A3045 RMK A01 T10191023  RH  096%=      5-min Rain = 0
KAD1 071955Z 02007KT M02/M02 A3045 RMK A01 T10191024  RH  096%=      5-min Rain = 0
KAD1 071956Z 02006KT M02/M02 A3045 RMK A01 T10191024  RH  096%=      5-min Rain = 0
KAD1 071957Z 01006KT M02/M02 A3045 RMK A01 T10191024  RH  096%=      5-min Rain = 0
KAD1 071958Z 02005KT M02/M02 A3045 RMK A01 T10181023  RH  096%=      5-min Rain = 0
KAD1 071959Z 02006KT M02/M02 A3045 RMK A01 T10161021  RH  096%=      5-min Rain = 0
KAD1 072000Z 02006KT M02/M02 A3045 RMK A01 T10161021  RH  096%=      5-min Rain = 0
KAD1 072001Z 03005KT M02/M02 A3045 RMK A01 T10181023  RH  096%=      5-min Rain = 0
KAD1 072002Z 02005KT M02/M02 A3045 RMK A01 T10181023  RH  096%=      5-min Rain = 0
KAD1 072003Z 01006KT M02/M02 A3045 RMK A01 T10171022  RH  096%=      5-min Rain = 0
KAD1 072004Z 01006KT M02/M02 A3045 RMK A01 T10171023  RH  096%=      5-min Rain = 0
KAD1 072005Z 01006KT M02/M02 A3045 RMK A01 T10171023  RH  096%=      5-min Rain = 0
KAD1 072006Z 02006KT M02/M02 A3045 RMK A01 T10181023  RH  096%=      5-min Rain = 0
KAD1 072007Z 03005KT M02/M02 A3045 RMK A01 T10181023  RH  096%=      5-min Rain = 0
KAD1 072008Z 03006KT M02/M02 A3045 RMK A01 T10171023  RH  096%=      5-min Rain = 0
KAD1 072009Z 02005KT M02/M02 A3045 RMK A01 T10171022  RH  096%=      5-min Rain = 0
KAD1 072010Z 03006KT M02/M02 A3044 RMK A01 T10171022  RH  096%=      5-min Rain = 0
KAD1 072011Z 03007KT M02/M02 A3044 RMK A01 T10161021  RH  096%=      5-min Rain = 0
KAD1 072012Z 03006KT M02/M02 A3044 RMK A01 T10161022  RH  096%=      5-min Rain = 0
KAD1 072013Z 03006KT M02/M02 A3044 RMK A01 T10161021  RH  096%=      5-min Rain = 0
KAD1 072014Z 02006KT M02/M02 A3044 RMK A01 T10161021  RH  096%=      5-min Rain = 0
KAD1 072015Z 03005KT M02/M02 A3044 RMK A01 T10161021  RH  096%=      5-min Rain = 0
KAD1 072016Z 03006KT M02/M02 A3044 RMK A01 T10161022  RH  096%=      5-min Rain = 0
KAD1 072017Z 02006KT M02/M02 A3044 RMK A01 T10161021  RH  096%=      5-min Rain = 0
KAD1 072018Z 03006KT M02/M02 A3044 RMK A01 T10161021  RH  097%=      5-min Rain = 0
KAD1 072019Z 02006KT M02/M02 A3044 RMK A01 T10151020  RH  097%=      5-min Rain = 0
KAD1 072020Z 02007KT M02/M02 A3044 RMK A01 T10151020  RH  097%=      5-min Rain = 0
KAD1 072021Z 02007KT M02/M02 A3044 RMK A01 T10161021  RH  096%=      5-min Rain = 0
KAD1 072022Z 02006KT M02/M02 A3044 RMK A01 T10161021  RH  096%=      5-min Rain = 0
KAD1 072023Z 03006KT M02/M02 A3044 RMK A01 T10161021  RH  096%=      5-min Rain = 0
KAD1 072024Z 03006KT M02/M02 A3044 RMK A01 T10151020  RH  096%=      5-min Rain = 0
KAD1 072025Z 03005KT M02/M02 A3044 RMK A01 T10151019  RH  097%=      5-min Rain = 0
KAD1 072026Z 02006KT M01/M02 A3044 RMK A01 T10141019  RH  096%=      5-min Rain = 0
KAD1 072027Z 03005KT M02/M02 A3044 RMK A01 T10151020  RH  096%=      5-min Rain = 0
KAD1 072028Z 02006KT M02/M02 A3044 RMK A01 T10151020  RH  096%=      5-min Rain = 0
KAD1 072029Z 02006KT M02/M02 A3044 RMK A01 T10151020  RH  096%=      5-min Rain = 0
KAD1 072030Z 04006KT M01/M02 A3044 RMK A01 T10141019  RH  096%=      5-min Rain = 0
KAD1 072031Z 03006KT M01/M02 A3044 RMK A01 T10141019  RH  096%=      5-min Rain = 0
KAD1 072032Z 03006KT M01/M02 A3044 RMK A01 T10141019  RH  096%=      5-min Rain = 0
KAD1 072033Z 03005KT M01/M02 A3044 RMK A01 T10141019  RH  096%=      5-min Rain = 0
KAD1 072034Z 03005KT M01/M02 A3044 RMK A01 T10141020  RH  096%=      5-min Rain = 0
KAD1 072035Z 03005KT M02/M02 A3044 RMK A01 T10151020  RH  096%=      5-min Rain = 0
KAD1 072036Z 03005KT M02/M02 A3044 RMK A01 T10151021  RH  096%=      5-min Rain = 0.01
KAD1 072037Z 02004KT M02/M02 A3045 RMK A01 T10151020  RH  096%=      5-min Rain = 0
KAD1 072038Z 02005KT M02/M02 A3045 RMK A01 T10151020  RH  096%=      5-min Rain = 0
KAD1 072039Z 02004KT M02/M02 A3045 RMK A01 T10151020  RH  096%=      5-min Rain = 0
KAD1 072040Z 01004KT M02/M02 A3044 RMK A01 T10151021  RH  096%=      5-min Rain = 0
KAD1 072041Z 02004KT M01/M02 A3044 RMK A01 T10141019  RH  096%=      5-min Rain = 0
KAD1 072042Z 02004KT M01/M02 A3044 RMK A01 T10141019  RH  096%=      5-min Rain = 0
KAD1 072043Z 01005KT M01/M02 A3044 RMK A01 T10131018  RH  096%=      5-min Rain = 0
KAD1 072044Z 02004KT M01/M02 A3044 RMK A01 T10131019  RH  096%=      5-min Rain = 0
KAD1 072045Z 01005KT M01/M02 A3044 RMK A01 T10131019  RH  096%=      5-min Rain = 0
KAD1 072046Z 01005KT M01/M02 A3044 RMK A01 T10141019  RH  096%=      5-min Rain = 0
KAD1 072047Z 00005KT M01/M02 A3044 RMK A01 T10131019  RH  096%=      5-min Rain = 0
KAD1 072048Z 01005KT M01/M02 A3044 RMK A01 T10131019  RH  096%=      5-min Rain = 0
KAD1 072049Z 01004KT M01/M02 A3044 RMK A01 T10141019  RH  096%=      5-min Rain = 0
KAD1 072050Z 01004KT M01/M02 A3044 RMK A01 T10131018  RH  096%=      5-min Rain = 0
KAD1 072051Z 02004KT M01/M02 A3044 RMK A01 T10131018  RH  096%=      5-min Rain = 0
KAD1 072052Z 01003KT M01/M02 A3044 RMK A01 T10131018  RH  096%=      5-min Rain = 0
KAD1 072053Z 01004KT M01/M02 A3044 RMK A01 T10121017  RH  097%=      5-min Rain = 0
KAD1 072054Z 01004KT M01/M02 A3044 RMK A01 T10121017  RH  097%=      5-min Rain = 0
KAD1 072055Z 01004KT M01/M02 A3044 RMK A01 T10121017  RH  097%=      5-min Rain = 0
KAD1 072056Z 00004KT M01/M02 A3044 RMK A01 T10121017  RH  097%=      5-min Rain = 0
KAD1 072057Z 00005KT M01/M02 A3044 RMK A01 T10121017  RH  097%=      5-min Rain = 0
KAD1 072058Z 00004KT M01/M02 A3044 RMK A01 T10121017  RH  097%=      5-min Rain = 0
KAD1 072059Z 02004KT M01/M02 A3044 RMK A01 T10121016  RH  097%=      5-min Rain = 0
KAD1 072100Z 01004KT M01/M02 A3044 RMK A01 T10111016  RH  097%=      5-min Rain = 0
KAD1 072101Z 01004KT M01/M02 A3044 RMK A01 T10121016  RH  097%=      5-min Rain = 0
KAD1 072102Z 35004KT M01/M02 A3044 RMK A01 T10121017  RH  097%=      5-min Rain = 0
KAD1 072103Z 35004KT M01/M02 A3044 RMK A01 T10111016  RH  097%=      5-min Rain = 0
KAD1 072104Z 35004KT M01/M02 A3044 RMK A01 T10111016  RH  097%=      5-min Rain = 0
KAD1 072105Z 35003KT M01/M02 A3044 RMK A01 T10111015  RH  097%=      5-min Rain = 0
KAD1 072106Z 00003KT M01/M01 A3044 RMK A01 T10101014  RH  097%=      5-min Rain = 0
KAD1 072107Z 35004KT M01/M01 A3044 RMK A01 T10101014  RH  097%=      5-min Rain = 0
KAD1 072108Z 35004KT M01/M02 A3044 RMK A01 T10101015  RH  097%=      5-min Rain = 0
KAD1 072109Z 36003KT M01/M02 A3044 RMK A01 T10111015  RH  097%=      5-min Rain = 0
KAD1 072110Z 01004KT M01/M02 A3044 RMK A01 T10101015  RH  097%=      5-min Rain = 0
KAD1 072111Z 01004KT M01/M01 A3044 RMK A01 T10101014  RH  097%=      5-min Rain = 0
KAD1 072112Z 01004KT M01/M02 A3044 RMK A01 T10101015  RH  097%=      5-min Rain = 0
KAD1 072113Z 02004KT M01/M02 A3044 RMK A01 T10121016  RH  097%=      5-min Rain = 0
KAD1 072114Z 00003KT M01/M02 A3044 RMK A01 T10121016  RH  097%=      5-min Rain = 0
KAD1 072115Z 00003KT M01/M02 A3044 RMK A01 T10121016  RH  097%=      5-min Rain = 0
KAD1 072116Z 00003KT M01/M02 A3044 RMK A01 T10111015  RH  097%=      5-min Rain = 0
KAD1 072117Z 01003KT M01/M02 A3044 RMK A01 T10111016  RH  097%=      5-min Rain = 0
KAD1 072118Z 00003KT M01/M02 A3044 RMK A01 T10111016  RH  097%=      5-min Rain = 0
KAD1 072119Z 00002KT M01/M02 A3044 RMK A01 T10111015  RH  097%=      5-min Rain = 0
KAD1 072120Z 02003KT M01/M02 A3044 RMK A01 T10101015  RH  097%=      5-min Rain = 0
KAD1 072121Z 02003KT M01/M01 A3044 RMK A01 T10101014  RH  097%=      5-min Rain = 0
KAD1 072122Z 03003KT M01/M01 A3044 RMK A01 T10101014  RH  097%=      5-min Rain = 0
KAD1 072123Z 03003KT M01/M01 A3044 RMK A01 T10101014  RH  097%=      5-min Rain = 0
KAD1 072124Z 01002KT M01/M01 A3044 RMK A01 T10091013  RH  097%=      5-min Rain = 0
KAD1 072125Z 01003KT M01/M01 A3044 RMK A01 T10071011  RH  097%=      5-min Rain = 0
KAD1 072126Z 02003KT M01/M01 A3044 RMK A01 T10081012  RH  097%=      5-min Rain = 0
KAD1 072127Z 03003KT M01/M01 A3044 RMK A01 T10081012  RH  097%=      5-min Rain = 0
KAD1 072128Z 02003KT M01/M01 A3044 RMK A01 T10071011  RH  097%=      5-min Rain = 0
KAD1 072129Z 02003KT M01/M01 A3044 RMK A01 T10081012  RH  097%=      5-min Rain = 0
KAD1 072130Z 02003KT M01/M01 A3044 RMK A01 T10081012  RH  097%=      5-min Rain = 0
KAD1 072131Z 02002KT M01/M01 A3044 RMK A01 T10091013  RH  097%=      5-min Rain = 0
KAD1 072132Z 01004KT M01/M01 A3044 RMK A01 T10081012  RH  097%=      5-min Rain = 0
KAD1 072133Z 01003KT M01/M01 A3044 RMK A01 T10081013  RH  097%=      5-min Rain = 0
KAD1 072134Z 02003KT M01/M01 A3044 RMK A01 T10091014  RH  097%=      5-min Rain = 0
KAD1 072135Z 03004KT M01/M01 A3044 RMK A01 T10091013  RH  097%=      5-min Rain = 0
KAD1 072136Z 04004KT M01/M01 A3044 RMK A01 T10091013  RH  097%=      5-min Rain = 0
KAD1 072137Z 03004KT M01/M01 A3043 RMK A01 T10091013  RH  097%=      5-min Rain = 0
KAD1 072138Z 03004KT M01/M01 A3043 RMK A01 T10081013  RH  097%=      5-min Rain = 0
KAD1 072139Z 03003KT M01/M01 A3043 RMK A01 T10091013  RH  097%=      5-min Rain = 0
KAD1 072140Z 03004KT M01/M01 A3043 RMK A01 T10081013  RH  097%=      5-min Rain = 0
KAD1 072141Z 04004KT M01/M01 A3043 RMK A01 T10081013  RH  097%=      5-min Rain = 0
KAD1 072142Z 03004KT M01/M01 A3043 RMK A01 T10061011  RH  097%=      5-min Rain = 0
KAD1 072143Z 03004KT M01/M01 A3043 RMK A01 T10071011  RH  097%=      5-min Rain = 0
KAD1 072144Z 02004KT M01/M01 A3043 RMK A01 T10071012  RH  097%=      5-min Rain = 0
KAD1 072145Z 02004KT M01/M01 A3043 RMK A01 T10071011  RH  097%=      5-min Rain = 0
KAD1 072146Z 03004KT M01/M01 A3043 RMK A01 T10061011  RH  097%=      5-min Rain = 0
KAD1 072147Z 03005KT M01/M01 A3043 RMK A01 T10061010  RH  097%=      5-min Rain = 0
KAD1 072148Z 03005KT M01/M01 A3043 RMK A01 T10061011  RH  097%=      5-min Rain = 0
KAD1 072149Z 04005KT M01/M01 A3043 RMK A01 T10061011  RH  097%=      5-min Rain = 0
KAD1 072150Z 05004KT M01/M01 A3043 RMK A01 T10061011  RH  097%=      5-min Rain = 0
KAD1 072151Z 05004KT M01/M01 A3043 RMK A01 T10061011  RH  097%=      5-min Rain = 0
KAD1 072152Z 03004KT M01/M01 A3043 RMK A01 T10051010  RH  097%=      5-min Rain = 0
KAD1 072153Z 03003KT M01/M01 A3043 RMK A01 T10051010  RH  097%=      5-min Rain = 0
KAD1 072154Z 02003KT M01/M01 A3043 RMK A01 T10061011  RH  097%=      5-min Rain = 0
KAD1 072155Z 03003KT M01/M01 A3043 RMK A01 T10061010  RH  097%=      5-min Rain = 0
KAD1 072156Z 05004KT M01/M01 A3043 RMK A01 T10051010  RH  097%=      5-min Rain = 0
KAD1 072157Z 04004KT M00/M01 A3043 RMK A01 T10041009  RH  097%=      5-min Rain = 0
KAD1 072158Z 05004KT M00/M01 A3043 RMK A01 T10041008  RH  097%=      5-min Rain = 0
KAD1 072159Z 05004KT M00/M01 A3043 RMK A01 T10031008  RH  097%=      5-min Rain = 0
KAD1 072200Z 04003KT M00/M01 A3043 RMK A01 T10041009  RH  097%=      5-min Rain = 0
KAD1 072201Z 05004KT M01/M01 A3043 RMK A01 T10061011  RH  096%=      5-min Rain = 0
KAD1 072202Z 04004KT M01/M01 A3043 RMK A01 T10051011  RH  096%=      5-min Rain = 0
KAD1 072203Z 03003KT M00/M01 A3043 RMK A01 T10041010  RH  096%=      5-min Rain = 0
KAD1 072204Z 02003KT M00/M01 A3043 RMK A01 T10041009  RH  097%=      5-min Rain = 0
KAD1 072205Z 01004KT M00/M01 A3043 RMK A01 T10041009  RH  097%=      5-min Rain = 0
KAD1 072206Z 02004KT M00/M01 A3043 RMK A01 T10041009  RH  096%=      5-min Rain = 0
KAD1 072207Z 02004KT M00/M01 A3043 RMK A01 T10031008  RH  097%=      5-min Rain = 0
KAD1 072208Z 03004KT M00/M01 A3043 RMK A01 T10041009  RH  097%=      5-min Rain = 0
KAD1 072209Z 02005KT M00/M01 A3043 RMK A01 T10041010  RH  096%=      5-min Rain = 0
KAD1 072210Z 03005KT M01/M01 A3043 RMK A01 T10051010  RH  096%=      5-min Rain = 0
KAD1 072211Z 02004KT M01/M01 A3043 RMK A01 T10061011  RH  096%=      5-min Rain = 0
KAD1 072212Z 02005KT M01/M01 A3043 RMK A01 T10061011  RH  096%=      5-min Rain = 0
KAD1 072213Z 03005KT M01/M01 A3043 RMK A01 T10061012  RH  096%=      5-min Rain = 0
KAD1 072214Z 03004KT M01/M01 A3043 RMK A01 T10061011  RH  096%=      5-min Rain = 0
KAD1 072215Z 03004KT M01/M01 A3043 RMK A01 T10061011  RH  096%=      5-min Rain = 0
KAD1 072216Z 03004KT M01/M01 A3043 RMK A01 T10061011  RH  096%=      5-min Rain = 0
KAD1 072217Z 04004KT M01/M01 A3043 RMK A01 T10051010  RH  096%=      5-min Rain = 0
KAD1 072218Z 05005KT M01/M01 A3043 RMK A01 T10051010  RH  096%=      5-min Rain = 0
KAD1 072219Z 05004KT M00/M01 A3043 RMK A01 T10041010  RH  096%=      5-min Rain = 0
KAD1 072220Z 05004KT M01/M01 A3043 RMK A01 T10051010  RH  096%=      5-min Rain = 0
KAD1 072221Z 04005KT M00/M01 A3043 RMK A01 T10041010  RH  096%=      5-min Rain = 0
KAD1 072222Z 05004KT M00/M01 A3043 RMK A01 T10041009  RH  096%=      5-min Rain = 0
KAD1 072223Z 06004KT M00/M01 A3044 RMK A01 T10041010  RH  096%=      5-min Rain = 0
KAD1 072224Z 05005KT M00/M01 A3044 RMK A01 T10041010  RH  096%=      5-min Rain = 0
KAD1 072225Z 05005KT M00/M01 A3044 RMK A01 T10041010  RH  096%=      5-min Rain = 0
KAD1 072226Z 05004KT M01/M01 A3044 RMK A01 T10051011  RH  096%=      5-min Rain = 0
KAD1 072227Z 06004KT M01/M01 A3044 RMK A01 T10051011  RH  096%=      5-min Rain = 0
KAD1 072228Z 06005KT M00/M01 A3044 RMK A01 T10041010  RH  096%=      5-min Rain = 0
KAD1 072229Z 05005KT M00/M01 A3044 RMK A01 T10041011  RH  095%=      5-min Rain = 0
KAD1 072230Z 04004KT M01/M01 A3044 RMK A01 T10051012  RH  095%=      5-min Rain = 0
KAD1 072231Z 05003KT M01/M01 A3044 RMK A01 T10051013  RH  094%=      5-min Rain = 0
KAD1 072232Z 05004KT M01/M01 A3044 RMK A01 T10051012  RH  094%=      5-min Rain = 0
KAD1 072233Z 05004KT M00/M01 A3044 RMK A01 T10041012  RH  094%=      5-min Rain = 0
KAD1 072234Z 04004KT M00/M01 A3044 RMK A01 T10041012  RH  094%=      5-min Rain = 0
KAD1 072235Z 04004KT M00/M01 A3044 RMK A01 T10041012  RH  094%=      5-min Rain = 0
KAD1 072236Z 04004KT M01/M01 A3043 RMK A01 T10051013  RH  094%=      5-min Rain = 0
KAD1 072237Z 04005KT M01/M01 A3043 RMK A01 T10051013  RH  094%=      5-min Rain = 0
KAD1 072238Z 05004KT M00/M01 A3043 RMK A01 T10041013  RH  094%=      5-min Rain = 0
KAD1 072239Z 05005KT M00/M01 A3043 RMK A01 T10041012  RH  094%=      5-min Rain = 0
KAD1 072240Z 06005KT M00/M01 A3043 RMK A01 T10041012  RH  094%=      5-min Rain = 0
KAD1 072241Z 06005KT M00/M01 A3043 RMK A01 T10041013  RH  093%=      5-min Rain = 0
KAD1 072242Z 06005KT M00/M01 A3043 RMK A01 T10041014  RH  093%=      5-min Rain = 0
KAD1 072243Z 06004KT M00/M01 A3043 RMK A01 T10041014  RH  093%=      5-min Rain = 0
KAD1 072244Z 06005KT M00/M02 A3043 RMK A01 T10041015  RH  092%=      5-min Rain = 0
KAD1 072245Z 04004KT M00/M01 A3043 RMK A01 T10041014  RH  093%=      5-min Rain = 0
KAD1 072246Z 04004KT M00/M01 A3043 RMK A01 T10031013  RH  093%=      5-min Rain = 0
KAD1 072247Z 05004KT M00/M01 A3043 RMK A01 T10031013  RH  093%=      5-min Rain = 0
KAD1 072248Z 05004KT M00/M01 A3043 RMK A01 T10031012  RH  093%=      5-min Rain = 0
KAD1 072249Z 05004KT M00/M01 A3043 RMK A01 T10031012  RH  093%=      5-min Rain = 0
KAD1 072250Z 06004KT M00/M01 A3043 RMK A01 T10031012  RH  093%=      5-min Rain = 0
KAD1 072251Z 05004KT M00/M01 A3043 RMK A01 T10031012  RH  093%=      5-min Rain = 0
KAD1 072252Z 05004KT M00/M01 A3043 RMK A01 T10031013  RH  093%=      5-min Rain = 0
KAD1 072253Z 04004KT M00/M01 A3043 RMK A01 T10031013  RH  093%=      5-min Rain = 0
KAD1 072254Z 05004KT M00/M01 A3043 RMK A01 T10031013  RH  093%=      5-min Rain = 0
KAD1 072255Z 04004KT M00/M01 A3043 RMK A01 T10031014  RH  093%=      5-min Rain = 0
KAD1 072256Z 05004KT M00/M01 A3043 RMK A01 T10041014  RH  092%=      5-min Rain = 0
KAD1 072257Z 05004KT M00/M02 A3043 RMK A01 T10041015  RH  092%=      5-min Rain = 0
KAD1 072258Z 03004KT M00/M02 A3043 RMK A01 T10041015  RH  092%=      5-min Rain = 0
KAD1 072259Z 04003KT M00/M01 A3043 RMK A01 T10031014  RH  092%=      5-min Rain = 0
KAD1 072300Z 04003KT M00/M01 A3043 RMK A01 T10031014  RH  092%=      5-min Rain = 0
KAD1 072301Z 04003KT M00/M02 A3043 RMK A01 T10031015  RH  092%=      5-min Rain = 0
KAD1 072302Z 04003KT M00/M02 A3043 RMK A01 T10041016  RH  092%=      5-min Rain = 0
KAD1 072303Z 05003KT M00/M02 A3043 RMK A01 T10041015  RH  092%=      5-min Rain = 0
KAD1 072304Z 06003KT M00/M01 A3043 RMK A01 T10031013  RH  093%=      5-min Rain = 0
KAD1 072305Z 06003KT M00/M01 A3043 RMK A01 T10031013  RH  093%=      5-min Rain = 0
KAD1 072306Z 06003KT M00/M01 A3043 RMK A01 T10031014  RH  092%=      5-min Rain = 0
KAD1 072307Z 06003KT M00/M01 A3043 RMK A01 T10021013  RH  093%=      5-min Rain = 0
KAD1 072308Z 07003KT M00/M01 A3043 RMK A01 T10021013  RH  093%=      5-min Rain = 0
KAD1 072309Z 07004KT M00/M01 A3043 RMK A01 T10021013  RH  092%=      5-min Rain = 0
KAD1 072310Z 07004KT M00/M02 A3043 RMK A01 T10031015  RH  092%=      5-min Rain = 0
KAD1 072311Z 08004KT M00/M02 A3043 RMK A01 T10031015  RH  092%=      5-min Rain = 0
KAD1 072312Z 08004KT M00/M02 A3043 RMK A01 T10031015  RH  091%=      5-min Rain = 0
KAD1 072313Z 08004KT M00/M02 A3043 RMK A01 T10031016  RH  091%=      5-min Rain = 0
KAD1 072314Z 07004KT M00/M02 A3043 RMK A01 T10031016  RH  091%=      5-min Rain = 0
KAD1 072315Z 07004KT M00/M02 A3043 RMK A01 T10031015  RH  091%=      5-min Rain = 0
KAD1 072316Z 06004KT M00/M02 A3043 RMK A01 T10031015  RH  091%=      5-min Rain = 0
KAD1 072317Z 05004KT M00/M01 A3043 RMK A01 T10021014  RH  092%=      5-min Rain = 0
KAD1 072318Z 06004KT M00/M02 A3043 RMK A01 T10021015  RH  091%=      5-min Rain = 0
KAD1 072319Z 06004KT M00/M02 A3043 RMK A01 T10021016  RH  091%=      5-min Rain = 0
KAD1 072320Z 07004KT M00/M02 A3043 RMK A01 T10021016  RH  090%=      5-min Rain = 0
KAD1 072321Z 07004KT M00/M02 A3043 RMK A01 T10021015  RH  091%=      5-min Rain = 0
KAD1 072322Z 07004KT M00/M02 A3043 RMK A01 T10021015  RH  091%=      5-min Rain = 0
KAD1 072323Z 07004KT M00/M02 A3043 RMK A01 T10021015  RH  091%=      5-min Rain = 0
KAD1 072324Z 07005KT M00/M01 A3043 RMK A01 T10021014  RH  091%=      5-min Rain = 0
KAD1 072325Z 06004KT M00/M02 A3043 RMK A01 T10021016  RH  090%=      5-min Rain = 0
KAD1 072326Z 06004KT M00/M02 A3044 RMK A01 T10021016  RH  090%=      5-min Rain = 0
KAD1 072327Z 07004KT M00/M02 A3044 RMK A01 T10021016  RH  090%=      5-min Rain = 0
KAD1 072328Z 07003KT M00/M02 A3044 RMK A01 T10021015  RH  091%=      5-min Rain = 0
KAD1 072329Z 08003KT M00/M02 A3044 RMK A01 T10021015  RH  091%=      5-min Rain = 0
KAD1 072330Z 07003KT M00/M01 A3043 RMK A01 T10021014  RH  092%=      5-min Rain = 0
KAD1 072331Z 07003KT M00/M01 A3043 RMK A01 T10021013  RH  092%=      5-min Rain = 0
KAD1 072332Z 07003KT M00/M01 A3043 RMK A01 T10021013  RH  092%=      5-min Rain = 0
KAD1 072333Z 06003KT M00/M01 A3043 RMK A01 T10021013  RH  092%=      5-min Rain = 0
KAD1 072334Z 07003KT M00/M01 A3043 RMK A01 T10021013  RH  092%=      5-min Rain = 0
KAD1 072335Z 07003KT M00/M01 A3043 RMK A01 T10021012  RH  093%=      5-min Rain = 0
KAD1 072336Z 08003KT M00/M01 A3043 RMK A01 T10021013  RH  093%=      5-min Rain = 0
KAD1 072337Z 08003KT M00/M01 A3043 RMK A01 T10021013  RH  093%=      5-min Rain = 0
KAD1 072338Z 07003KT M00/M01 A3043 RMK A01 T10021013  RH  093%=      5-min Rain = 0
KAD1 072339Z 07003KT M00/M01 A3043 RMK A01 T10021012  RH  093%=      5-min Rain = 0
KAD1 072340Z 08002KT M00/M01 A3043 RMK A01 T10021012  RH  093%=      5-min Rain = 0
KAD1 072341Z 08002KT M00/M01 A3043 RMK A01 T10021012  RH  093%=      5-min Rain = 0
KAD1 072342Z 09002KT M00/M01 A3044 RMK A01 T10031013  RH  093%=      5-min Rain = 0
KAD1 072343Z 09002KT M00/M01 A3044 RMK A01 T10031013  RH  093%=      5-min Rain = 0
KAD1 072344Z 08002KT M00/M01 A3044 RMK A01 T10021012  RH  094%=      5-min Rain = 0
KAD1 072345Z 09002KT M00/M01 A3044 RMK A01 T10021011  RH  094%=      5-min Rain = 0
KAD1 072346Z 08002KT M00/M01 A3044 RMK A01 T10021011  RH  093%=      5-min Rain = 0
KAD1 072347Z 08002KT M00/M01 A3044 RMK A01 T10021012  RH  093%=      5-min Rain = 0
KAD1 072348Z 10002KT M00/M01 A3044 RMK A01 T10031012  RH  093%=      5-min Rain = 0
KAD1 072349Z 10002KT M00/M01 A3044 RMK A01 T10031012  RH  093%=      5-min Rain = 0
KAD1 072350Z 10003KT M00/M01 A3044 RMK A01 T10031012  RH  093%=      5-min Rain = 0
KAD1 072351Z 09003KT M00/M01 A3044 RMK A01 T10021011  RH  094%=      5-min Rain = 0
KAD1 072352Z 09003KT M00/M01 A3043 RMK A01 T10021011  RH  093%=      5-min Rain = 0
KAD1 072353Z 09003KT M00/M01 A3043 RMK A01 T10031013  RH  093%=      5-min Rain = 0
KAD1 072354Z 09003KT M00/M01 A3043 RMK A01 T10031013  RH  093%=      5-min Rain = 0
KAD1 072355Z 09003KT M00/M01 A3043 RMK A01 T10031013  RH  093%=      5-min Rain = 0
KAD1 072356Z 09004KT M00/M01 A3043 RMK A01 T10021013  RH  093%=      5-min Rain = 0
KAD1 072357Z 09004KT M00/M01 A3043 RMK A01 T10021013  RH  093%=      5-min Rain = 0
KAD1 072358Z 09003KT M00/M01 A3043 RMK A01 T10031013  RH  092%=      5-min Rain = 0
KAD1 072359Z 09003KT M00/M01 A3043 RMK A01 T10031014  RH  092%=      5-min Rain = 0
KAD1 080000Z 09003KT M00/M01 A3044 RMK A01 T10031014  RH  092%=      5-min Rain = 0
KAD1 080001Z 09003KT M00/M01 A3044 RMK A01 T10031014  RH  092%=      5-min Rain = 0
KAD1 080002Z 09003KT M00/M02 A3044 RMK A01 T10031015  RH  092%=      5-min Rain = 0
KAD1 080003Z 09002KT M00/M02 A3044 RMK A01 T10031015  RH  092%=      5-min Rain = 0
KAD1 080004Z 09002KT M00/M01 A3044 RMK A01 T10031014  RH  092%=      5-min Rain = 0
KAD1 080005Z 10003KT M00/M01 A3044 RMK A01 T10031014  RH  092%=      5-min Rain = 0
KAD1 080006Z 10002KT M00/M02 A3044 RMK A01 T10031015  RH  091%=      5-min Rain = 0
KAD1 080007Z 10002KT M00/M02 A3044 RMK A01 T10031015  RH  091%=      5-min Rain = 0
KAD1 080008Z 08003KT M00/M02 A3044 RMK A01 T10031015  RH  091%=      5-min Rain = 0
KAD1 080009Z 08002KT M00/M02 A3044 RMK A01 T10031016  RH  091%=      5-min Rain = 0
KAD1 080010Z 08002KT M00/M02 A3044 RMK A01 T10031016  RH  091%=      5-min Rain = 0
KAD1 080011Z 07002KT M00/M02 A3044 RMK A01 T10031016  RH  091%=      5-min Rain = 0
KAD1 080012Z 06003KT M00/M02 A3044 RMK A01 T10031015  RH  091%=      5-min Rain = 0
KAD1 080013Z 06003KT M00/M02 A3044 RMK A01 T10031015  RH  092%=      5-min Rain = 0
KAD1 080014Z 07003KT M00/M02 A3044 RMK A01 T10031015  RH  091%=      5-min Rain = 0
KAD1 080015Z 08003KT M00/M02 A3044 RMK A01 T10031017  RH  091%=      5-min Rain = 0
KAD1 080016Z 07003KT M00/M02 A3044 RMK A01 T10031017  RH  091%=      5-min Rain = 0
KAD1 080017Z 08003KT M00/M02 A3044 RMK A01 T10031015  RH  091%=      5-min Rain = 0
KAD1 080018Z 07003KT M00/M02 A3044 RMK A01 T10021015  RH  091%=      5-min Rain = 0
KAD1 080019Z 07003KT M00/M02 A3044 RMK A01 T10031016  RH  091%=      5-min Rain = 0
KAD1 080020Z 08003KT M00/M02 A3044 RMK A01 T10031016  RH  091%=      5-min Rain = 0
KAD1 080021Z 08003KT M00/M02 A3044 RMK A01 T10021015  RH  091%=      5-min Rain = 0
KAD1 080022Z 08003KT M00/M02 A3044 RMK A01 T10021015  RH  091%=      5-min Rain = 0
KAD1 080023Z 08003KT M00/M02 A3044 RMK A01 T10021015  RH  091%=      5-min Rain = 0
KAD1 080024Z 08002KT M00/M02 A3044 RMK A01 T10021015  RH  091%=      5-min Rain = 0
KAD1 080025Z 08003KT M00/M02 A3044 RMK A01 T10021015  RH  091%=      5-min Rain = 0
KAD1 080026Z 08003KT M00/M02 A3044 RMK A01 T10021016  RH  091%=      5-min Rain = 0
KAD1 080027Z 09003KT M00/M02 A3044 RMK A01 T10021016  RH  091%=      5-min Rain = 0
KAD1 080028Z 08002KT M00/M02 A3044 RMK A01 T10021015  RH  091%=      5-min Rain = 0
KAD1 080029Z 08002KT M00/M02 A3044 RMK A01 T10021016  RH  091%=      5-min Rain = 0
KAD1 080030Z 08002KT M00/M02 A3044 RMK A01 T10021016  RH  090%=      5-min Rain = 0
KAD1 080031Z 08002KT M00/M02 A3044 RMK A01 T10021016  RH  091%=      5-min Rain = 0
KAD1 080032Z 08002KT M00/M02 A3044 RMK A01 T10021015  RH  091%=      5-min Rain = 0
KAD1 080033Z 08002KT M00/M02 A3044 RMK A01 T10021016  RH  091%=      5-min Rain = 0
KAD1 080034Z 08002KT M00/M02 A3044 RMK A01 T10021016  RH  090%=      5-min Rain = 0
KAD1 080035Z 07002KT M00/M02 A3044 RMK A01 T10021016  RH  091%=      5-min Rain = 0
KAD1 080036Z 07002KT M00/M02 A3044 RMK A01 T10021015  RH  091%=      5-min Rain = 0
KAD1 080037Z 07002KT M00/M02 A3044 RMK A01 T10021016  RH  091%=      5-min Rain = 0
KAD1 080038Z 07002KT M00/M02 A3044 RMK A01 T10021016  RH  090%=      5-min Rain = 0
KAD1 080039Z 07003KT M00/M02 A3044 RMK A01 T10021017  RH  090%=      5-min Rain = 0
KAD1 080040Z 07002KT M00/M02 A3044 RMK A01 T10021017  RH  090%=      5-min Rain = 0
KAD1 080041Z 07002KT M00/M02 A3044 RMK A01 T10021018  RH  089%=      5-min Rain = 0
KAD1 080042Z 07002KT M00/M02 A3044 RMK A01 T10021018  RH  089%=      5-min Rain = 0
KAD1 080043Z 06002KT M00/M02 A3044 RMK A01 T10021017  RH  090%=      5-min Rain = 0
KAD1 080044Z 06002KT M00/M02 A3044 RMK A01 T10021017  RH  090%=      5-min Rain = 0
KAD1 080045Z 06002KT M00/M02 A3044 RMK A01 T10021018  RH  089%=      5-min Rain = 0
KAD1 080046Z 07002KT M00/M02 A3044 RMK A01 T10021018  RH  089%=      5-min Rain = 0
KAD1 080047Z 06002KT M00/M02 A3044 RMK A01 T10021018  RH  089%=      5-min Rain = 0
KAD1 080048Z 06002KT M00/M02 A3044 RMK A01 T10021018  RH  089%=      5-min Rain = 0
KAD1 080049Z 06001KT M00/M02 A3044 RMK A01 T10021019  RH  089%=      5-min Rain = 0
KAD1 080050Z 06001KT M00/M02 A3044 RMK A01 T10021019  RH  089%=      5-min Rain = 0
KAD1 080051Z 06001KT M00/M02 A3044 RMK A01 T10031019  RH  089%=      5-min Rain = 0
KAD1 080052Z 07001KT M00/M02 A3044 RMK A01 T10021018  RH  089%=      5-min Rain = 0
KAD1 080053Z 08001KT M00/M02 A3044 RMK A01 T10021018  RH  089%=      5-min Rain = 0
KAD1 080054Z 08001KT M00/M02 A3044 RMK A01 T10021019  RH  089%=      5-min Rain = 0
KAD1 080055Z 07001KT M00/M02 A3044 RMK A01 T10021018  RH  089%=      5-min Rain = 0
KAD1 080056Z 06001KT M00/M02 A3044 RMK A01 T10021018  RH  089%=      5-min Rain = 0
KAD1 080057Z 08002KT M00/M02 A3044 RMK A01 T10021017  RH  089%=      5-min Rain = 0
KAD1 080058Z 08002KT M00/M02 A3044 RMK A01 T10021017  RH  090%=      5-min Rain = 0
KAD1 080059Z 08002KT M00/M02 A3044 RMK A01 T10021017  RH  089%=      5-min Rain = 0
KAD1 080100Z 08002KT M00/M02 A3044 RMK A01 T10021017  RH  090%=      5-min Rain = 0
KAD1 080101Z 09002KT M00/M02 A3044 RMK A01 T10011017  RH  090%=      5-min Rain = 0
KAD1 080102Z 09003KT M00/M02 A3044 RMK A01 T10011017  RH  089%=      5-min Rain = 0
KAD1 080103Z 09003KT M00/M02 A3044 RMK A01 T10011018  RH  088%=      5-min Rain = 0
KAD1 080104Z 10003KT M00/M02 A3044 RMK A01 T10021019  RH  088%=      5-min Rain = 0
KAD1 080105Z 10003KT M00/M02 A3044 RMK A01 T10011017  RH  089%=      5-min Rain = 0
KAD1 080106Z 09002KT M00/M02 A3044 RMK A01 T10011017  RH  089%=      5-min Rain = 0
KAD1 080107Z 10003KT M00/M02 A3044 RMK A01 T10011016  RH  089%=      5-min Rain = 0
KAD1 080108Z 09003KT 00/02 A3044 RMK A01 T00-00-16  RH  089%=      5-min Rain = 0
KAD1 080109Z 07003KT 00/02 A3044 RMK A01 T00-00-18  RH  088%=      5-min Rain = 0
KAD1 080110Z 07002KT M00/M02 A3044 RMK A01 T10011019  RH  087%=      5-min Rain = 0
KAD1 080111Z 10003KT M00/M02 A3044 RMK A01 T10011019  RH  088%=      5-min Rain = 0
KAD1 080112Z 09003KT M00/M02 A3044 RMK A01 T10011019  RH  087%=      5-min Rain = 0
KAD1 080113Z 09003KT M00/M02 A3044 RMK A01 T10011020  RH  087%=      5-min Rain = 0
KAD1 080114Z 09003KT M00/M02 A3044 RMK A01 T10011020  RH  088%=      5-min Rain = 0
KAD1 080115Z 08002KT M00/M02 A3044 RMK A01 T10011018  RH  088%=      5-min Rain = 0
KAD1 080116Z 07003KT M00/M02 A3044 RMK A01 T10021019  RH  088%=      5-min Rain = 0
KAD1 080117Z 07003KT M00/M02 A3044 RMK A01 T10021019  RH  088%=      5-min Rain = 0
KAD1 080118Z 09003KT M00/M02 A3044 RMK A01 T10021021  RH  087%=      5-min Rain = 0
KAD1 080119Z 07002KT M00/M02 A3044 RMK A01 T10021020  RH  088%=      5-min Rain = 0
KAD1 080120Z 08002KT M00/M02 A3044 RMK A01 T10021019  RH  088%=      5-min Rain = 0
KAD1 080121Z 09003KT M00/M02 A3044 RMK A01 T10021019  RH  089%=      5-min Rain = 0
KAD1 080122Z 09003KT M00/M02 A3044 RMK A01 T10021018  RH  089%=      5-min Rain = 0
KAD1 080123Z 09004KT M00/M02 A3044 RMK A01 T10021019  RH  089%=      5-min Rain = 0
KAD1 080124Z 08004KT M00/M02 A3044 RMK A01 T10021018  RH  089%=      5-min Rain = 0
KAD1 080125Z 07003KT M00/M02 A3044 RMK A01 T10021018  RH  089%=      5-min Rain = 0
KAD1 080126Z 09003KT M00/M02 A3044 RMK A01 T10021018  RH  089%=      5-min Rain = 0
KAD1 080127Z 10003KT M00/M02 A3044 RMK A01 T10021016  RH  090%=      5-min Rain = 0
KAD1 080128Z 09003KT M00/M02 A3044 RMK A01 T10021015  RH  091%=      5-min Rain = 0
KAD1 080129Z 09004KT M00/M01 A3044 RMK A01 T10011014  RH  091%=      5-min Rain = 0
KAD1 080130Z 09004KT M00/M02 A3044 RMK A01 T10021016  RH  090%=      5-min Rain = 0
KAD1 080131Z 09003KT M00/M02 A3044 RMK A01 T10021017  RH  090%=      5-min Rain = 0
KAD1 080132Z 10003KT M00/M02 A3044 RMK A01 T10021017  RH  090%=      5-min Rain = 0
KAD1 080133Z 10003KT M00/M02 A3044 RMK A01 T10021016  RH  090%=      5-min Rain = 0
KAD1 080134Z 10004KT M00/M02 A3044 RMK A01 T10021016  RH  090%=      5-min Rain = 0
KAD1 080135Z 09003KT M00/M02 A3044 RMK A01 T10021016  RH  090%=      5-min Rain = 0
KAD1 080136Z 10003KT M00/M02 A3044 RMK A01 T10021017  RH  089%=      5-min Rain = 0
KAD1 080137Z 11004KT M00/M02 A3044 RMK A01 T10021018  RH  089%=      5-min Rain = 0
KAD1 080138Z 10004KT M00/M02 A3044 RMK A01 T10021018  RH  089%=      5-min Rain = 0
KAD1 080139Z 08002KT M00/M02 A3044 RMK A01 T10021018  RH  089%=      5-min Rain = 0
KAD1 080140Z 08003KT M00/M02 A3044 RMK A01 T10011017  RH  089%=      5-min Rain = 0
KAD1 080141Z 09002KT M00/M02 A3044 RMK A01 T10011016  RH  090%=      5-min Rain = 0
KAD1 080142Z 11002KT M00/M02 A3045 RMK A01 T10011016  RH  090%=      5-min Rain = 0
KAD1 080143Z 11003KT M00/M02 A3045 RMK A01 T10011016  RH  090%=      5-min Rain = 0
KAD1 080144Z 10002KT M00/M02 A3045 RMK A01 T10011016  RH  089%=      5-min Rain = 0
KAD1 080145Z 10002KT M00/M02 A3044 RMK A01 T10011016  RH  089%=      5-min Rain = 0
KAD1 080146Z 11003KT M00/M02 A3044 RMK A01 T10011017  RH  089%=      5-min Rain = 0
KAD1 080147Z 10002KT M00/M02 A3044 RMK A01 T10011018  RH  088%=      5-min Rain = 0
KAD1 080148Z 11003KT M00/M02 A3044 RMK A01 T10021019  RH  088%=      5-min Rain = 0
KAD1 080149Z 11004KT M00/M02 A3044 RMK A01 T10021019  RH  088%=      5-min Rain = 0
KAD1 080150Z 11003KT M00/M02 A3044 RMK A01 T10021020  RH  088%=      5-min Rain = 0
KAD1 080151Z 11004KT M00/M02 A3044 RMK A01 T10021020  RH  088%=      5-min Rain = 0
KAD1 080152Z 11003KT M00/M02 A3044 RMK A01 T10021020  RH  088%=      5-min Rain = 0
KAD1 080153Z 10003KT M00/M02 A3044 RMK A01 T10021018  RH  089%=      5-min Rain = 0
KAD1 080154Z 10004KT M00/M02 A3044 RMK A01 T10021018  RH  089%=      5-min Rain = 0
KAD1 080155Z 10003KT M00/M02 A3044 RMK A01 T10021018  RH  089%=      5-min Rain = 0
KAD1 080156Z 11003KT M00/M02 A3044 RMK A01 T10021017  RH  090%=      5-min Rain = 0
KAD1 080157Z 12003KT M00/M02 A3044 RMK A01 T10021016  RH  090%=      5-min Rain = 0
KAD1 080158Z 11004KT M00/M02 A3044 RMK A01 T10021016  RH  090%=      5-min Rain = 0
KAD1 080159Z 11004KT M00/M02 A3044 RMK A01 T10021016  RH  091%=      5-min Rain = 0
KAD1 080200Z 11004KT M00/M02 A3044 RMK A01 T10021017  RH  090%=      5-min Rain = 0
KAD1 080201Z 10004KT M00/M02 A3044 RMK A01 T10021016  RH  091%=      5-min Rain = 0
KAD1 080202Z 09003KT M00/M02 A3044 RMK A01 T10031016  RH  091%=      5-min Rain = 0
KAD1 080203Z 10003KT M00/M02 A3044 RMK A01 T10031015  RH  092%=      5-min Rain = 0
KAD1 080204Z 09004KT M00/M01 A3044 RMK A01 T10031014  RH  092%=      5-min Rain = 0
KAD1 080205Z 10003KT M00/M01 A3044 RMK A01 T10031014  RH  092%=      5-min Rain = 0
KAD1 080206Z 10003KT M00/M02 A3044 RMK A01 T10031015  RH  092%=      5-min Rain = 0
KAD1 080207Z 11003KT M00/M02 A3044 RMK A01 T10031015  RH  092%=      5-min Rain = 0
KAD1 080208Z 12003KT M00/M02 A3044 RMK A01 T10031015  RH  092%=      5-min Rain = 0
KAD1 080209Z 12003KT M00/M01 A3045 RMK A01 T10031014  RH  092%=      5-min Rain = 0
KAD1 080210Z 13003KT M00/M01 A3045 RMK A01 T10031013  RH  093%=      5-min Rain = 0
KAD1 080211Z 13003KT M00/M01 A3045 RMK A01 T10031013  RH  093%=      5-min Rain = 0
KAD1 080212Z 13004KT M00/M01 A3045 RMK A01 T10031012  RH  093%=      5-min Rain = 0
KAD1 080213Z 13004KT M00/M01 A3045 RMK A01 T10031012  RH  094%=      5-min Rain = 0
KAD1 080214Z 12003KT M00/M01 A3045 RMK A01 T10031012  RH  094%=      5-min Rain = 0
KAD1 080215Z 13004KT M00/M01 A3045 RMK A01 T10031012  RH  094%=      5-min Rain = 0
KAD1 080216Z 14003KT M00/M01 A3045 RMK A01 T10031011  RH  094%=      5-min Rain = 0
KAD1 080217Z 13004KT M00/M01 A3045 RMK A01 T10031012  RH  094%=      5-min Rain = 0
KAD1 080218Z 13004KT M00/M01 A3045 RMK A01 T10031012  RH  094%=      5-min Rain = 0
KAD1 080219Z 13004KT M00/M01 A3045 RMK A01 T10031012  RH  094%=      5-min Rain = 0
KAD1 080220Z 13003KT M00/M01 A3045 RMK A01 T10041012  RH  094%=      5-min Rain = 0
KAD1 080221Z 12003KT M00/M01 A3045 RMK A01 T10041012  RH  094%=      5-min Rain = 0
KAD1 080222Z 12003KT M00/M01 A3045 RMK A01 T10031011  RH  095%=      5-min Rain = 0
KAD1 080223Z 13003KT M00/M01 A3045 RMK A01 T10031011  RH  095%=      5-min Rain = 0
KAD1 080224Z 13003KT M00/M01 A3045 RMK A01 T10031011  RH  095%=      5-min Rain = 0
KAD1 080225Z 12002KT M00/M01 A3045 RMK A01 T10031010  RH  095%=      5-min Rain = 0
KAD1 080226Z 11003KT M00/M01 A3045 RMK A01 T10031010  RH  095%=      5-min Rain = 0
KAD1 080227Z 11003KT M00/M01 A3045 RMK A01 T10031010  RH  095%=      5-min Rain = 0
KAD1 080228Z 11003KT M00/M01 A3045 RMK A01 T10031010  RH  095%=      5-min Rain = 0
KAD1 080229Z 11002KT M00/M01 A3045 RMK A01 T10041010  RH  095%=      5-min Rain = 0
KAD1 080230Z 11003KT M00/M01 A3045 RMK A01 T10041010  RH  096%=      5-min Rain = 0
KAD1 080231Z 11003KT M00/M01 A3045 RMK A01 T10031010  RH  096%=      5-min Rain = 0
KAD1 080232Z 12003KT M00/M01 A3045 RMK A01 T10031009  RH  096%=      5-min Rain = 0
KAD1 080233Z 12003KT M00/M01 A3045 RMK A01 T10041009  RH  096%=      5-min Rain = 0
KAD1 080234Z 11003KT M00/M01 A3045 RMK A01 T10041009  RH  096%=      5-min Rain = 0
KAD1 080235Z 11003KT M00/M01 A3045 RMK A01 T10041009  RH  096%=      5-min Rain = 0
KAD1 080236Z 10002KT M00/M01 A3045 RMK A01 T10041009  RH  096%=      5-min Rain = 0
KAD1 080237Z 10002KT M00/M01 A3045 RMK A01 T10041010  RH  096%=      5-min Rain = 0
KAD1 080238Z 09002KT M00/M01 A3045 RMK A01 T10041009  RH  096%=      5-min Rain = 0
KAD1 080239Z 10002KT M00/M01 A3045 RMK A01 T10031008  RH  096%=      5-min Rain = 0
KAD1 080240Z 09002KT M00/M01 A3045 RMK A01 T10031008  RH  096%=      5-min Rain = 0
KAD1 080241Z 09002KT M00/M01 A3045 RMK A01 T10041009  RH  096%=      5-min Rain = 0.01
KAD1 080242Z 10002KT M00/M01 A3045 RMK A01 T10031008  RH  097%=      5-min Rain = 0
KAD1 080243Z 10002KT M00/M01 A3045 RMK A01 T10031008  RH  097%=      5-min Rain = 0
KAD1 080244Z 09002KT M00/M01 A3045 RMK A01 T10031008  RH  097%=      5-min Rain = 0
KAD1 080245Z 09002KT M00/M01 A3045 RMK A01 T10041008  RH  097%=      5-min Rain = 0
KAD1 080246Z 08002KT M00/M01 A3045 RMK A01 T10041008  RH  097%=      5-min Rain = 0
KAD1 080247Z 08001KT M00/M01 A3045 RMK A01 T10041008  RH  097%=      5-min Rain = 0
KAD1 080248Z 09002KT M00/M01 A3046 RMK A01 T10031007  RH  097%=      5-min Rain = 0
KAD1 080249Z 11002KT M00/M01 A3046 RMK A01 T10031007  RH  097%=      5-min Rain = 0
KAD1 080250Z 10001KT M00/M01 A3046 RMK A01 T10031007  RH  097%=      5-min Rain = 0
KAD1 080251Z 11001KT M00/M01 A3046 RMK A01 T10031007  RH  097%=      5-min Rain = 0
KAD1 080252Z 12001KT M00/M01 A3046 RMK A01 T10031007  RH  097%=      5-min Rain = 0
KAD1 080253Z 13001KT M00/M01 A3046 RMK A01 T10031007  RH  097%=      5-min Rain = 0
KAD1 080254Z 13002KT M00/M01 A3046 RMK A01 T10031007  RH  097%=      5-min Rain = 0
KAD1 080255Z 13002KT M00/M01 A3046 RMK A01 T10031007  RH  097%=      5-min Rain = 0
KAD1 080256Z 12002KT M00/M01 A3046 RMK A01 T10041008  RH  097%=      5-min Rain = 0
KAD1 080257Z 13002KT M00/M01 A3046 RMK A01 T10041008  RH  097%=      5-min Rain = 0
KAD1 080258Z 14002KT M00/M01 A3046 RMK A01 T10041008  RH  097%=      5-min Rain = 0
KAD1 080259Z 14002KT M00/M01 A3046 RMK A01 T10041008  RH  097%=      5-min Rain = 0
KAD1 080300Z 14002KT M00/M01 A3046 RMK A01 T10041007  RH  097%=      5-min Rain = 0
KAD1 080301Z 14002KT M00/M01 A3046 RMK A01 T10031007  RH  097%=      5-min Rain = 0
KAD1 080302Z 14002KT M00/M01 A3046 RMK A01 T10041007  RH  097%=      5-min Rain = 0
KAD1 080303Z 14002KT M00/M01 A3046 RMK A01 T10041007  RH  097%=      5-min Rain = 0
KAD1 080304Z 14002KT M00/M01 A3046 RMK A01 T10031007  RH  097%=      5-min Rain = 0
KAD1 080305Z 13002KT M00/M01 A3046 RMK A01 T10031006  RH  097%=      5-min Rain = 0
KAD1 080306Z 12002KT M00/M01 A3046 RMK A01 T10031006  RH  098%=      5-min Rain = 0
KAD1 080307Z 12002KT M00/M01 A3046 RMK A01 T10031006  RH  098%=      5-min Rain = 0
KAD1 080308Z 11002KT M00/M01 A3045 RMK A01 T10031006  RH  098%=      5-min Rain = 0
KAD1 080309Z 11002KT M00/M01 A3045 RMK A01 T10031006  RH  098%=      5-min Rain = 0
KAD1 080310Z 10002KT M00/M01 A3045 RMK A01 T10031007  RH  098%=      5-min Rain = 0
KAD1 080311Z 09002KT M00/M01 A3045 RMK A01 T10031006  RH  098%=      5-min Rain = 0
KAD1 080312Z 09002KT M00/M01 A3045 RMK A01 T10031007  RH  098%=      5-min Rain = 0
KAD1 080313Z 09002KT M00/M01 A3045 RMK A01 T10031007  RH  098%=      5-min Rain = 0
KAD1 080314Z 09002KT M00/M01 A3045 RMK A01 T10031007  RH  098%=      5-min Rain = 0
KAD1 080315Z 08002KT M00/M01 A3045 RMK A01 T10031006  RH  098%=      5-min Rain = 0
KAD1 080316Z 08002KT M00/M01 A3045 RMK A01 T10031006  RH  098%=      5-min Rain = 0
KAD1 080317Z 09002KT M00/M01 A3045 RMK A01 T10031006  RH  098%=      5-min Rain = 0
KAD1 080318Z 09002KT M00/M01 A3045 RMK A01 T10031007  RH  098%=      5-min Rain = 0
KAD1 080319Z 10001KT M00/M01 A3045 RMK A01 T10031006  RH  098%=      5-min Rain = 0
KAD1 080320Z 09001KT M00/M01 A3045 RMK A01 T10031007  RH  098%=      5-min Rain = 0
KAD1 080321Z 09002KT M00/M01 A3045 RMK A01 T10031006  RH  098%=      5-min Rain = 0
KAD1 080322Z 10002KT M00/M01 A3045 RMK A01 T10031006  RH  098%=      5-min Rain = 0
KAD1 080323Z 09002KT M00/M01 A3046 RMK A01 T10031006  RH  098%=      5-min Rain = 0
KAD1 080324Z 09002KT M00/M01 A3046 RMK A01 T10031006  RH  098%=      5-min Rain = 0
KAD1 080325Z 09001KT M00/M01 A3046 RMK A01 T10031006  RH  098%=      5-min Rain = 0
KAD1 080326Z 09002KT M00/M01 A3046 RMK A01 T10031007  RH  098%=      5-min Rain = 0
KAD1 080327Z 11002KT M00/M01 A3046 RMK A01 T10031007  RH  098%=      5-min Rain = 0
KAD1 080328Z 12002KT M00/M01 A3046 RMK A01 T10031007  RH  098%=      5-min Rain = 0
KAD1 080329Z 12002KT M00/M01 A3046 RMK A01 T10031006  RH  098%=      5-min Rain = 0
KAD1 080330Z 12001KT M00/M01 A3046 RMK A01 T10031006  RH  098%=      5-min Rain = 0
KAD1 080331Z 12001KT M00/M01 A3046 RMK A01 T10031006  RH  098%=      5-min Rain = 0
KAD1 080332Z 16001KT M00/M01 A3046 RMK A01 T10031006  RH  098%=      5-min Rain = 0
KAD1 080333Z 16001KT M00/M01 A3046 RMK A01 T10031006  RH  098%=      5-min Rain = 0
KAD1 080334Z 15001KT M00/M01 A3046 RMK A01 T10031006  RH  098%=      5-min Rain = 0
KAD1 080335Z 14001KT M00/M01 A3046 RMK A01 T10021005  RH  098%=      5-min Rain = 0
KAD1 080336Z 14001KT M00/M01 A3046 RMK A01 T10021005  RH  098%=      5-min Rain = 0
KAD1 080337Z 15001KT M00/M01 A3046 RMK A01 T10021005  RH  098%=      5-min Rain = 0
KAD1 080338Z 15002KT M00/M01 A3046 RMK A01 T10021005  RH  098%=      5-min Rain = 0
KAD1 080339Z 16002KT M00/M01 A3046 RMK A01 T10021005  RH  098%=      5-min Rain = 0
KAD1 080340Z 18002KT M00/M01 A3046 RMK A01 T10021005  RH  098%=      5-min Rain = 0
KAD1 080341Z 18002KT M00/M01 A3046 RMK A01 T10021005  RH  098%=      5-min Rain = 0
KAD1 080342Z 19002KT M00/M00 A3046 RMK A01 T10021004  RH  098%=      5-min Rain = 0
KAD1 080343Z 19002KT M00/M00 A3046 RMK A01 T10011004  RH  098%=      5-min Rain = 0
KAD1 080344Z 17002KT M00/M00 A3046 RMK A01 T10011004  RH  098%=      5-min Rain = 0
KAD1 080345Z 18003KT M00/M00 A3046 RMK A01 T10011004  RH  098%=      5-min Rain = 0
KAD1 080346Z 19002KT M00/M01 A3046 RMK A01 T10021005  RH  098%=      5-min Rain = 0
KAD1 080347Z 19002KT M00/M01 A3046 RMK A01 T10021005  RH  098%=      5-min Rain = 0
KAD1 080348Z 20002KT M00/M01 A3046 RMK A01 T10021005  RH  098%=      5-min Rain = 0
KAD1 080349Z 19002KT M00/M01 A3046 RMK A01 T10021005  RH  098%=      5-min Rain = 0
KAD1 080350Z 17002KT M00/M01 A3046 RMK A01 T10021005  RH  098%=      5-min Rain = 0
KAD1 080351Z 16002KT M00/M01 A3046 RMK A01 T10021005  RH  098%=      5-min Rain = 0
KAD1 080352Z 15002KT M00/M01 A3046 RMK A01 T10021005  RH  098%=      5-min Rain = 0
KAD1 080353Z 14002KT M00/M01 A3046 RMK A01 T10021005  RH  098%=      5-min Rain = 0
KAD1 080354Z 15002KT M00/M01 A3046 RMK A01 T10021005  RH  098%=      5-min Rain = 0
KAD1 080355Z 15001KT M00/M01 A3046 RMK A01 T10021005  RH  098%=      5-min Rain = 0
KAD1 080356Z 14001KT M00/M01 A3046 RMK A01 T10021005  RH  098%=      5-min Rain = 0
KAD1 080357Z 14001KT M00/M01 A3046 RMK A01 T10021005  RH  098%=      5-min Rain = 0
KAD1 080358Z 13001KT M00/M01 A3046 RMK A01 T10021005  RH  098%=      5-min Rain = 0
KAD1 080359Z 13002KT M00/M01 A3046 RMK A01 T10021005  RH  098%=      5-min Rain = 0
KAD1 080400Z 13002KT M00/M01 A3046 RMK A01 T10021005  RH  098%=      5-min Rain = 0
KAD1 080401Z 15002KT M00/M01 A3046 RMK A01 T10021005  RH  098%=      5-min Rain = 0
KAD1 080402Z 14002KT M00/M01 A3046 RMK A01 T10021005  RH  098%=      5-min Rain = 0
KAD1 080403Z 14002KT M00/M01 A3046 RMK A01 T10021005  RH  098%=      5-min Rain = 0
KAD1 080404Z 15002KT M00/M01 A3046 RMK A01 T10021005  RH  098%=      5-min Rain = 0
KAD1 080405Z 15002KT M00/M01 A3046 RMK A01 T10021005  RH  098%=      5-min Rain = 0
KAD1 080406Z 17002KT M00/M01 A3046 RMK A01 T10021005  RH  098%=      5-min Rain = 0
KAD1 080407Z 16002KT M00/M01 A3046 RMK A01 T10021005  RH  098%=      5-min Rain = 0
KAD1 080408Z 16002KT M00/M01 A3046 RMK A01 T10021005  RH  098%=      5-min Rain = 0
KAD1 080409Z 15002KT M00/M01 A3046 RMK A01 T10021005  RH  098%=      5-min Rain = 0
KAD1 080410Z 16002KT M00/M00 A3046 RMK A01 T10021004  RH  098%=      5-min Rain = 0
KAD1 080411Z 17002KT M00/M00 A3046 RMK A01 T10021004  RH  098%=      5-min Rain = 0
KAD1 080412Z 16002KT M00/M00 A3046 RMK A01 T10011004  RH  098%=      5-min Rain = 0
KAD1 080413Z 17003KT M00/M00 A3046 RMK A01 T10011004  RH  098%=      5-min Rain = 0
KAD1 080414Z 17003KT M00/M00 A3046 RMK A01 T10011004  RH  098%=      5-min Rain = 0
KAD1 080415Z 16003KT M00/M00 A3046 RMK A01 T10011004  RH  098%=      5-min Rain = 0
KAD1 080416Z 16003KT M00/M00 A3046 RMK A01 T10011004  RH  098%=      5-min Rain = 0
KAD1 080417Z 16003KT M00/M00 A3046 RMK A01 T10011004  RH  098%=      5-min Rain = 0
KAD1 080418Z 16004KT M00/M00 A3046 RMK A01 T10011004  RH  098%=      5-min Rain = 0
KAD1 080419Z 16003KT M00/M00 A3046 RMK A01 T10011004  RH  098%=      5-min Rain = 0
KAD1 080420Z 16003KT M00/M00 A3046 RMK A01 T10011004  RH  098%=      5-min Rain = 0
KAD1 080421Z 16003KT M00/M00 A3046 RMK A01 T10011004  RH  098%=      5-min Rain = 0
KAD1 080422Z 17003KT M00/M00 A3046 RMK A01 T10011004  RH  098%=      5-min Rain = 0
KAD1 080423Z 18003KT M00/M00 A3046 RMK A01 T10011004  RH  098%=      5-min Rain = 0
KAD1 080424Z 18002KT M00/M00 A3046 RMK A01 T10011004  RH  098%=      5-min Rain = 0
KAD1 080425Z 18002KT M00/M00 A3046 RMK A01 T10011004  RH  098%=      5-min Rain = 0
KAD1 080426Z 18003KT 00/00 A3046 RMK A01 T00-000-3  RH  098%=      5-min Rain = 0
KAD1 080427Z 18003KT M00/M00 A3046 RMK A01 T10011004  RH  098%=      5-min Rain = 0
KAD1 080428Z 18002KT M00/M00 A3046 RMK A01 T10011004  RH  098%=      5-min Rain = 0
KAD1 080429Z 18002KT M00/M00 A3046 RMK A01 T10011004  RH  098%=      5-min Rain = 0
KAD1 080430Z 18002KT M00/M00 A3046 RMK A01 T10011004  RH  098%=      5-min Rain = 0
KAD1 080431Z 19002KT M00/M00 A3046 RMK A01 T10011004  RH  098%=      5-min Rain = 0
KAD1 080432Z 19003KT 00/00 A3046 RMK A01 T00-000-3  RH  098%=      5-min Rain = 0
KAD1 080433Z 20003KT M00/M00 A3046 RMK A01 T10011003  RH  098%=      5-min Rain = 0
KAD1 080434Z 20003KT M00/M00 A3046 RMK A01 T10011003  RH  098%=      5-min Rain = 0
KAD1 080435Z 20003KT 00/00 A3046 RMK A01 T00-000-3  RH  098%=      5-min Rain = 0
KAD1 080436Z 19004KT 00/00 A3046 RMK A01 T00-000-3  RH  098%=      5-min Rain = 0
KAD1 080437Z 20003KT 00/00 A3046 RMK A01 T00-000-3  RH  098%=      5-min Rain = 0
KAD1 080438Z 20003KT 00/00 A3046 RMK A01 T00-000-3  RH  098%=      5-min Rain = 0
KAD1 080439Z 20004KT 00/00 A3046 RMK A01 T00-000-3  RH  098%=      5-min Rain = 0
KAD1 080440Z 20003KT M00/M00 A3046 RMK A01 T10011004  RH  098%=      5-min Rain = 0
KAD1 080441Z 20003KT M00/M00 A3046 RMK A01 T10011004  RH  098%=      5-min Rain = 0
KAD1 080442Z 20003KT M00/M00 A3046 RMK A01 T10011004  RH  098%=      5-min Rain = 0
KAD1 080443Z 20003KT M00/M00 A3046 RMK A01 T10011004  RH  098%=      5-min Rain = 0
KAD1 080444Z 20003KT M00/M00 A3046 RMK A01 T10011004  RH  098%=      5-min Rain = 0
KAD1 080445Z 21003KT M00/M00 A3046 RMK A01 T10021004  RH  098%=      5-min Rain = 0.01
KAD1 080446Z 20003KT M00/M00 A3046 RMK A01 T10011004  RH  098%=      5-min Rain = 0
KAD1 080447Z 20003KT M00/M00 A3046 RMK A01 T10011004  RH  098%=      5-min Rain = 0
KAD1 080448Z 20003KT M00/M00 A3046 RMK A01 T10011003  RH  098%=      5-min Rain = 0
KAD1 080449Z 19003KT M00/M00 A3046 RMK A01 T10011004  RH  098%=      5-min Rain = 0
KAD1 080450Z 20004KT M00/M00 A3046 RMK A01 T10011003  RH  098%=      5-min Rain = 0
KAD1 080451Z 19004KT 00/00 A3046 RMK A01 T00-000-3  RH  098%=      5-min Rain = 0
KAD1 080452Z 19004KT 00/00 A3046 RMK A01 T00-000-3  RH  098%=      5-min Rain = 0
KAD1 080453Z 19004KT 00/00 A3046 RMK A01 T00-000-3  RH  098%=      5-min Rain = 0
KAD1 080454Z 19004KT 00/00 A3045 RMK A01 T00-000-3  RH  098%=      5-min Rain = 0
KAD1 080455Z 19005KT 00/00 A3045 RMK A01 T00-000-3  RH  098%=      5-min Rain = 0
KAD1 080456Z 19005KT 00/00 A3045 RMK A01 T00-000-3  RH  098%=      5-min Rain = 0
KAD1 080457Z 19004KT 00/00 A3045 RMK A01 T00-000-3  RH  098%=      5-min Rain = 0
KAD1 080458Z 19004KT 00/00 A3045 RMK A01 T000000-2  RH  098%=      5-min Rain = 0
KAD1 080459Z 19004KT 00/00 A3045 RMK A01 T000000-2  RH  098%=      5-min Rain = 0
KAD1 080500Z 19005KT 00/M00 A3045 RMK A01 T00011002  RH  098%=      5-min Rain = 0
KAD1 080501Z 19005KT 00/00 A3045 RMK A01 T000000-2  RH  098%=      5-min Rain = 0
KAD1 080502Z 18005KT 00/00 A3045 RMK A01 T000000-2  RH  098%=      5-min Rain = 0
KAD1 080503Z 19004KT 00/00 A3045 RMK A01 T00-000-3  RH  098%=      5-min Rain = 0
KAD1 080504Z 19004KT 00/00 A3045 RMK A01 T000000-2  RH  098%=      5-min Rain = 0
KAD1 080505Z 19004KT 00/00 A3045 RMK A01 T000000-2  RH  098%=      5-min Rain = 0
KAD1 080506Z 18005KT 00/M00 A3045 RMK A01 T00011002  RH  098%=      5-min Rain = 0
KAD1 080507Z 18004KT 00/00 A3045 RMK A01 T000000-2  RH  098%=      5-min Rain = 0
KAD1 080508Z 18004KT 00/00 A3045 RMK A01 T00-000-2  RH  098%=      5-min Rain = 0
KAD1 080509Z 18004KT 00/00 A3045 RMK A01 T000000-2  RH  098%=      5-min Rain = 0
KAD1 080510Z 18004KT 00/00 A3045 RMK A01 T000000-2  RH  098%=      5-min Rain = 0
KAD1 080511Z 18004KT 00/M00 A3045 RMK A01 T00011002  RH  098%=      5-min Rain = 0
KAD1 080512Z 19004KT 00/00 A3045 RMK A01 T000000-2  RH  098%=      5-min Rain = 0
KAD1 080513Z 20004KT 00/00 A3045 RMK A01 T000000-2  RH  098%=      5-min Rain = 0
KAD1 080514Z 19005KT 00/M00 A3045 RMK A01 T00011002  RH  098%=      5-min Rain = 0
KAD1 080515Z 19004KT 00/M00 A3045 RMK A01 T00011002  RH  098%=      5-min Rain = 0
KAD1 080516Z 20004KT 00/00 A3045 RMK A01 T000000-2  RH  098%=      5-min Rain = 0
KAD1 080517Z 19004KT 00/00 A3045 RMK A01 T00-000-3  RH  098%=      5-min Rain = 0
KAD1 080518Z 20004KT 00/00 A3045 RMK A01 T00-000-3  RH  098%=      5-min Rain = 0
KAD1 080519Z 20005KT 00/00 A3045 RMK A01 T00-000-3  RH  098%=      5-min Rain = 0
KAD1 080520Z 20004KT 00/00 A3045 RMK A01 T00-000-3  RH  098%=      5-min Rain = 0
KAD1 080521Z 20004KT 00/00 A3045 RMK A01 T000000-2  RH  098%=      5-min Rain = 0
KAD1 080522Z 20004KT 00/00 A3045 RMK A01 T000000-2  RH  098%=      5-min Rain = 0
KAD1 080523Z 20005KT 00/00 A3045 RMK A01 T00-000-2  RH  098%=      5-min Rain = 0
KAD1 080524Z 20004KT 00/00 A3045 RMK A01 T000000-2  RH  098%=      5-min Rain = 0
KAD1 080525Z 20004KT 00/00 A3045 RMK A01 T000000-2  RH  098%=      5-min Rain = 0
KAD1 080526Z 20004KT 00/00 A3045 RMK A01 T000000-2  RH  098%=      5-min Rain = 0
KAD1 080527Z 20004KT 00/00 A3045 RMK A01 T000000-2  RH  098%=      5-min Rain = 0
KAD1 080528Z 20005KT 00/00 A3045 RMK A01 T000000-2  RH  098%=      5-min Rain = 0
KAD1 080529Z 20005KT 00/00 A3045 RMK A01 T000000-2  RH  098%=      5-min Rain = 0
KAD1 080530Z 21005KT 00/00 A3045 RMK A01 T000000-2  RH  098%=      5-min Rain = 0
KAD1 080531Z 21005KT 00/00 A3045 RMK A01 T000000-2  RH  098%=      5-min Rain = 0
KAD1 080532Z 21005KT 00/00 A3045 RMK A01 T000000-2  RH  099%=      5-min Rain = 0
KAD1 080533Z 21005KT 00/00 A3045 RMK A01 T000000-2  RH  098%=      5-min Rain = 0
KAD1 080534Z 20005KT 00/00 A3045 RMK A01 T000000-2  RH  099%=      5-min Rain = 0
KAD1 080535Z 21004KT 00/M00 A3045 RMK A01 T00011001  RH  099%=      5-min Rain = 0
KAD1 080536Z 21004KT 00/M00 A3045 RMK A01 T00011001  RH  099%=      5-min Rain = 0
KAD1 080537Z 20004KT 00/M00 A3045 RMK A01 T00011001  RH  099%=      5-min Rain = 0
KAD1 080538Z 20005KT 00/M00 A3045 RMK A01 T00011001  RH  098%=      5-min Rain = 0
KAD1 080539Z 20005KT 00/M00 A3045 RMK A01 T00011001  RH  098%=      5-min Rain = 0
KAD1 080540Z 20005KT 00/M00 A3045 RMK A01 T00011001  RH  098%=      5-min Rain = 0
KAD1 080541Z 20004KT 00/M00 A3045 RMK A01 T00011001  RH  098%=      5-min Rain = 0
KAD1 080542Z 21005KT 00/M00 A3044 RMK A01 T00011001  RH  099%=      5-min Rain = 0
KAD1 080543Z 21004KT 00/M00 A3044 RMK A01 T00011001  RH  098%=      5-min Rain = 0
KAD1 080544Z 21005KT 00/M00 A3044 RMK A01 T00011001  RH  098%=      5-min Rain = 0
KAD1 080545Z 21004KT 00/M00 A3044 RMK A01 T00011001  RH  098%=      5-min Rain = 0
KAD1 080546Z 21004KT 00/M00 A3044 RMK A01 T00011001  RH  099%=      5-min Rain = 0
KAD1 080547Z 21005KT 00/M00 A3044 RMK A01 T00011001  RH  099%=      5-min Rain = 0
KAD1 080548Z 21005KT 00/M00 A3044 RMK A01 T00011001  RH  098%=      5-min Rain = 0
KAD1 080549Z 20004KT 00/M00 A3044 RMK A01 T00011001  RH  098%=      5-min Rain = 0
KAD1 080550Z 21003KT 00/M00 A3044 RMK A01 T00011001  RH  098%=      5-min Rain = 0
KAD1 080551Z 22003KT 00/M00 A3044 RMK A01 T00011001  RH  099%=      5-min Rain = 0
KAD1 080552Z 22003KT 00/M00 A3044 RMK A01 T00011001  RH  099%=      5-min Rain = 0
KAD1 080553Z 22003KT 00/M00 A3044 RMK A01 T00011001  RH  099%=      5-min Rain = 0
KAD1 080554Z 22003KT 00/M00 A3044 RMK A01 T00011001  RH  099%=      5-min Rain = 0
KAD1 080555Z 21003KT 00/M00 A3044 RMK A01 T00011001  RH  099%=      5-min Rain = 0
KAD1 080556Z 22003KT 00/00 A3044 RMK A01 T000200-0  RH  099%=      5-min Rain = 0
KAD1 080557Z 22003KT 00/00 A3044 RMK A01 T000200-0  RH  099%=      5-min Rain = 0
KAD1 080558Z 22003KT 00/00 A3044 RMK A01 T000200-0  RH  099%=      5-min Rain = 0
KAD1 080559Z 23004KT 00/00 A3044 RMK A01 T000200-0  RH  099%=      5-min Rain = 0

Page generated in 0.1209 seconds.